<?xml version='1.0' encoding='UTF-8'?>
<gpx version="1.1" creator="https://www.komoot.de" xmlns="http://www.topografix.com/GPX/1/1" xmlns:xsi="http://www.w3.org/2001/XMLSchema-instance" xsi:schemaLocation="http://www.topografix.com/GPX/1/1 http://www.topografix.com/GPX/1/1/gpx.xsd">
  <metadata>
    <name>43_460Degerfelden</name>
    <author>
      <link href="https://www.komoot.de">
        <text>komoot</text>
        <type>text/html</type>
      </link>
    </author>
  </metadata>
  <trk>
    <name>43_460Degerfelden</name>
    <trkseg>
      <trkpt lat="47.541521" lon="7.870517">
        <ele>339.022574</ele>
        <time>2021-11-07T12:46:44.560Z</time>
      </trkpt>
      <trkpt lat="47.541521" lon="7.870517">
        <ele>339.022574</ele>
        <time>2021-11-07T12:46:44.584Z</time>
      </trkpt>
      <trkpt lat="47.541606" lon="7.870424">
        <ele>339.022574</ele>
        <time>2021-11-07T12:46:46.323Z</time>
      </trkpt>
      <trkpt lat="47.541910" lon="7.870106">
        <ele>339.022574</ele>
        <time>2021-11-07T12:46:52.184Z</time>
      </trkpt>
      <trkpt lat="47.542014" lon="7.870126">
        <ele>339.022574</ele>
        <time>2021-11-07T12:46:53.780Z</time>
      </trkpt>
      <trkpt lat="47.542118" lon="7.870135">
        <ele>339.022574</ele>
        <time>2021-11-07T12:46:55.443Z</time>
      </trkpt>
      <trkpt lat="47.542181" lon="7.870131">
        <ele>339.022574</ele>
        <time>2021-11-07T12:46:56.330Z</time>
      </trkpt>
      <trkpt lat="47.542317" lon="7.870012">
        <ele>339.012286</ele>
        <time>2021-11-07T12:46:58.582Z</time>
      </trkpt>
      <trkpt lat="47.542348" lon="7.869983">
        <ele>338.968231</ele>
        <time>2021-11-07T12:46:59.041Z</time>
      </trkpt>
      <trkpt lat="47.542329" lon="7.869820">
        <ele>338.834061</ele>
        <time>2021-11-07T12:47:00.732Z</time>
      </trkpt>
      <trkpt lat="47.542372" lon="7.869746">
        <ele>338.754863</ele>
        <time>2021-11-07T12:47:01.564Z</time>
      </trkpt>
      <trkpt lat="47.542657" lon="7.869354">
        <ele>338.287562</ele>
        <time>2021-11-07T12:47:06.428Z</time>
      </trkpt>
      <trkpt lat="47.542696" lon="7.869257">
        <ele>338.195985</ele>
        <time>2021-11-07T12:47:07.363Z</time>
      </trkpt>
      <trkpt lat="47.542722" lon="7.869201">
        <ele>338.140856</ele>
        <time>2021-11-07T12:47:07.954Z</time>
      </trkpt>
      <trkpt lat="47.543049" lon="7.868759">
        <ele>337.608958</ele>
        <time>2021-11-07T12:47:12.867Z</time>
      </trkpt>
      <trkpt lat="47.543105" lon="7.868711">
        <ele>337.531217</ele>
        <time>2021-11-07T12:47:13.605Z</time>
      </trkpt>
      <trkpt lat="47.543201" lon="7.868657">
        <ele>337.407830</ele>
        <time>2021-11-07T12:47:14.684Z</time>
      </trkpt>
      <trkpt lat="47.543657" lon="7.868359">
        <ele>336.816356</ele>
        <time>2021-11-07T12:47:20.479Z</time>
      </trkpt>
      <trkpt lat="47.543801" lon="7.868269">
        <ele>336.655063</ele>
        <time>2021-11-07T12:47:22.959Z</time>
      </trkpt>
      <trkpt lat="47.544214" lon="7.867988">
        <ele>336.186042</ele>
        <time>2021-11-07T12:47:30.575Z</time>
      </trkpt>
      <trkpt lat="47.544246" lon="7.867967">
        <ele>336.149923</ele>
        <time>2021-11-07T12:47:31.172Z</time>
      </trkpt>
      <trkpt lat="47.544410" lon="7.867825">
        <ele>335.953886</ele>
        <time>2021-11-07T12:47:34.425Z</time>
      </trkpt>
      <trkpt lat="47.544469" lon="7.867776">
        <ele>335.884082</ele>
        <time>2021-11-07T12:47:35.447Z</time>
      </trkpt>
      <trkpt lat="47.544568" lon="7.867693">
        <ele>335.766687</ele>
        <time>2021-11-07T12:47:37.374Z</time>
      </trkpt>
      <trkpt lat="47.545003" lon="7.867278">
        <ele>335.232732</ele>
        <time>2021-11-07T12:47:46.222Z</time>
      </trkpt>
      <trkpt lat="47.545160" lon="7.866985">
        <ele>335.048256</ele>
        <time>2021-11-07T12:47:50.873Z</time>
      </trkpt>
      <trkpt lat="47.545240" lon="7.866887">
        <ele>335.188154</ele>
        <time>2021-11-07T12:47:53.146Z</time>
      </trkpt>
      <trkpt lat="47.546096" lon="7.866147">
        <ele>336.523800</ele>
        <time>2021-11-07T12:48:18.216Z</time>
      </trkpt>
      <trkpt lat="47.546327" lon="7.865959">
        <ele>336.878993</ele>
        <time>2021-11-07T12:48:25.953Z</time>
      </trkpt>
      <trkpt lat="47.546510" lon="7.865766">
        <ele>337.181724</ele>
        <time>2021-11-07T12:48:33.055Z</time>
      </trkpt>
      <trkpt lat="47.546819" lon="7.865489">
        <ele>337.762243</ele>
        <time>2021-11-07T12:48:43.286Z</time>
      </trkpt>
      <trkpt lat="47.546889" lon="7.865225">
        <ele>338.121366</ele>
        <time>2021-11-07T12:48:48.477Z</time>
      </trkpt>
      <trkpt lat="47.546894" lon="7.864837">
        <ele>338.612714</ele>
        <time>2021-11-07T12:48:55.897Z</time>
      </trkpt>
      <trkpt lat="47.546885" lon="7.864500">
        <ele>339.039734</ele>
        <time>2021-11-07T12:49:02.685Z</time>
      </trkpt>
      <trkpt lat="47.546877" lon="7.864345">
        <ele>339.236557</ele>
        <time>2021-11-07T12:49:05.579Z</time>
      </trkpt>
      <trkpt lat="47.546592" lon="7.863006">
        <ele>340.848138</ele>
        <time>2021-11-07T12:49:31.588Z</time>
      </trkpt>
      <trkpt lat="47.546526" lon="7.861665">
        <ele>341.212036</ele>
        <time>2021-11-07T12:49:52.320Z</time>
      </trkpt>
      <trkpt lat="47.546487" lon="7.859119">
        <ele>341.240592</ele>
        <time>2021-11-07T12:50:25.231Z</time>
      </trkpt>
      <trkpt lat="47.546537" lon="7.857497">
        <ele>340.923442</ele>
        <time>2021-11-07T12:50:46.248Z</time>
      </trkpt>
      <trkpt lat="47.546537" lon="7.857497">
        <ele>340.923442</ele>
        <time>2021-11-07T12:50:46.253Z</time>
      </trkpt>
      <trkpt lat="47.546582" lon="7.856413">
        <ele>340.743442</ele>
        <time>2021-11-07T12:51:00.608Z</time>
      </trkpt>
      <trkpt lat="47.546945" lon="7.851719">
        <ele>339.248321</ele>
        <time>2021-11-07T12:52:01.487Z</time>
      </trkpt>
      <trkpt lat="47.547141" lon="7.850355">
        <ele>338.092173</ele>
        <time>2021-11-07T12:52:17.053Z</time>
      </trkpt>
      <trkpt lat="47.547143" lon="7.849985">
        <ele>337.785419</ele>
        <time>2021-11-07T12:52:20.961Z</time>
      </trkpt>
      <trkpt lat="47.547124" lon="7.848795">
        <ele>336.209527</ele>
        <time>2021-11-07T12:52:33.559Z</time>
      </trkpt>
      <trkpt lat="47.547274" lon="7.845536">
        <ele>332.231740</ele>
        <time>2021-11-07T12:53:08.318Z</time>
      </trkpt>
      <trkpt lat="47.547295" lon="7.844722">
        <ele>331.338292</ele>
        <time>2021-11-07T12:53:17.801Z</time>
      </trkpt>
      <trkpt lat="47.547313" lon="7.843735">
        <ele>330.487973</ele>
        <time>2021-11-07T12:53:29.589Z</time>
      </trkpt>
      <trkpt lat="47.547354" lon="7.842839">
        <ele>329.745063</ele>
        <time>2021-11-07T12:53:39.861Z</time>
      </trkpt>
      <trkpt lat="47.547448" lon="7.842262">
        <ele>329.254039</ele>
        <time>2021-11-07T12:53:46.662Z</time>
      </trkpt>
      <trkpt lat="47.547549" lon="7.842268">
        <ele>329.130156</ele>
        <time>2021-11-07T12:53:48.356Z</time>
      </trkpt>
      <trkpt lat="47.547674" lon="7.842266">
        <ele>328.962717</ele>
        <time>2021-11-07T12:53:50.450Z</time>
      </trkpt>
      <trkpt lat="47.548105" lon="7.842284">
        <ele>328.067845</ele>
        <time>2021-11-07T12:53:57.206Z</time>
      </trkpt>
      <trkpt lat="47.549188" lon="7.842622">
        <ele>325.770811</ele>
        <time>2021-11-07T12:54:14.121Z</time>
      </trkpt>
      <trkpt lat="47.549582" lon="7.842702">
        <ele>325.129148</ele>
        <time>2021-11-07T12:54:20.309Z</time>
      </trkpt>
      <trkpt lat="47.549927" lon="7.842747">
        <ele>324.824225</ele>
        <time>2021-11-07T12:54:26.092Z</time>
      </trkpt>
      <trkpt lat="47.551243" lon="7.842849">
        <ele>323.672721</ele>
        <time>2021-11-07T12:54:50.230Z</time>
      </trkpt>
      <trkpt lat="47.551454" lon="7.842815">
        <ele>323.582227</ele>
        <time>2021-11-07T12:54:54.889Z</time>
      </trkpt>
      <trkpt lat="47.551668" lon="7.842770">
        <ele>323.490069</ele>
        <time>2021-11-07T12:54:59.447Z</time>
      </trkpt>
      <trkpt lat="47.551922" lon="7.842704">
        <ele>323.380119</ele>
        <time>2021-11-07T12:55:04.369Z</time>
      </trkpt>
      <trkpt lat="47.552380" lon="7.842592">
        <ele>323.182199</ele>
        <time>2021-11-07T12:55:13.279Z</time>
      </trkpt>
      <trkpt lat="47.552833" lon="7.842495">
        <ele>322.987047</ele>
        <time>2021-11-07T12:55:21.699Z</time>
      </trkpt>
      <trkpt lat="47.553133" lon="7.842431">
        <ele>322.725081</ele>
        <time>2021-11-07T12:55:27.118Z</time>
      </trkpt>
      <trkpt lat="47.553123" lon="7.842222">
        <ele>322.522412</ele>
        <time>2021-11-07T12:55:28.739Z</time>
      </trkpt>
      <trkpt lat="47.553216" lon="7.841849">
        <ele>322.137784</ele>
        <time>2021-11-07T12:55:32.088Z</time>
      </trkpt>
      <trkpt lat="47.553231" lon="7.841529">
        <ele>321.827509</ele>
        <time>2021-11-07T12:55:34.524Z</time>
      </trkpt>
      <trkpt lat="47.552967" lon="7.839715">
        <ele>320.000097</ele>
        <time>2021-11-07T12:55:48.631Z</time>
      </trkpt>
      <trkpt lat="47.552939" lon="7.839526">
        <ele>319.792937</ele>
        <time>2021-11-07T12:55:50.049Z</time>
      </trkpt>
      <trkpt lat="47.552802" lon="7.839009">
        <ele>319.198305</ele>
        <time>2021-11-07T12:55:54.376Z</time>
      </trkpt>
      <trkpt lat="47.552736" lon="7.838578">
        <ele>318.725149</ele>
        <time>2021-11-07T12:55:57.815Z</time>
      </trkpt>
      <trkpt lat="47.552697" lon="7.838068">
        <ele>318.175650</ele>
        <time>2021-11-07T12:56:01.778Z</time>
      </trkpt>
      <trkpt lat="47.552719" lon="7.836790">
        <ele>316.721816</ele>
        <time>2021-11-07T12:56:11.642Z</time>
      </trkpt>
      <trkpt lat="47.552714" lon="7.835010">
        <ele>314.576079</ele>
        <time>2021-11-07T12:56:25.392Z</time>
      </trkpt>
      <trkpt lat="47.552700" lon="7.833938">
        <ele>312.720882</ele>
        <time>2021-11-07T12:56:32.959Z</time>
      </trkpt>
      <trkpt lat="47.552696" lon="7.833789">
        <ele>312.438635</ele>
        <time>2021-11-07T12:56:33.956Z</time>
      </trkpt>
      <trkpt lat="47.552452" lon="7.833284">
        <ele>311.263088</ele>
        <time>2021-11-07T12:56:38.282Z</time>
      </trkpt>
      <trkpt lat="47.552467" lon="7.833198">
        <ele>311.094961</ele>
        <time>2021-11-07T12:56:38.894Z</time>
      </trkpt>
      <trkpt lat="47.552511" lon="7.833072">
        <ele>310.826438</ele>
        <time>2021-11-07T12:56:39.899Z</time>
      </trkpt>
      <trkpt lat="47.552556" lon="7.832977">
        <ele>310.606757</ele>
        <time>2021-11-07T12:56:40.716Z</time>
      </trkpt>
      <trkpt lat="47.552616" lon="7.832891">
        <ele>310.372638</ele>
        <time>2021-11-07T12:56:41.522Z</time>
      </trkpt>
      <trkpt lat="47.552690" lon="7.832598">
        <ele>309.780497</ele>
        <time>2021-11-07T12:56:43.723Z</time>
      </trkpt>
      <trkpt lat="47.552645" lon="7.830686">
        <ele>306.168647</ele>
        <time>2021-11-07T12:56:56.845Z</time>
      </trkpt>
      <trkpt lat="47.552554" lon="7.829266">
        <ele>303.804731</ele>
        <time>2021-11-07T12:57:07.132Z</time>
      </trkpt>
      <trkpt lat="47.552416" lon="7.828822">
        <ele>303.301963</ele>
        <time>2021-11-07T12:57:10.796Z</time>
      </trkpt>
      <trkpt lat="47.552404" lon="7.828582">
        <ele>303.054438</ele>
        <time>2021-11-07T12:57:12.710Z</time>
      </trkpt>
      <trkpt lat="47.552421" lon="7.828481">
        <ele>302.947374</ele>
        <time>2021-11-07T12:57:13.466Z</time>
      </trkpt>
      <trkpt lat="47.552477" lon="7.828294">
        <ele>302.736955</ele>
        <time>2021-11-07T12:57:15.041Z</time>
      </trkpt>
      <trkpt lat="47.552515" lon="7.828094">
        <ele>302.523252</ele>
        <time>2021-11-07T12:57:16.759Z</time>
      </trkpt>
      <trkpt lat="47.552491" lon="7.827227">
        <ele>301.630762</ele>
        <time>2021-11-07T12:57:23.667Z</time>
      </trkpt>
      <trkpt lat="47.552567" lon="7.824508">
        <ele>300.261519</ele>
        <time>2021-11-07T12:57:47.515Z</time>
      </trkpt>
      <trkpt lat="47.552896" lon="7.820699">
        <ele>298.366240</ele>
        <time>2021-11-07T12:58:20.254Z</time>
      </trkpt>
      <trkpt lat="47.552948" lon="7.819358">
        <ele>297.750469</ele>
        <time>2021-11-07T12:58:31.793Z</time>
      </trkpt>
      <trkpt lat="47.552844" lon="7.816432">
        <ele>297.301459</ele>
        <time>2021-11-07T12:58:59.427Z</time>
      </trkpt>
      <trkpt lat="47.552711" lon="7.812955">
        <ele>298.599586</ele>
        <time>2021-11-07T12:59:40.082Z</time>
      </trkpt>
      <trkpt lat="47.552566" lon="7.810386">
        <ele>299.725082</ele>
        <time>2021-11-07T13:00:10.113Z</time>
      </trkpt>
      <trkpt lat="47.552398" lon="7.808880">
        <ele>300.414937</ele>
        <time>2021-11-07T13:00:28.594Z</time>
      </trkpt>
      <trkpt lat="47.552068" lon="7.806445">
        <ele>300.852050</ele>
        <time>2021-11-07T13:00:56.934Z</time>
      </trkpt>
      <trkpt lat="47.552015" lon="7.806307">
        <ele>300.871508</ele>
        <time>2021-11-07T13:00:58.657Z</time>
      </trkpt>
      <trkpt lat="47.551895" lon="7.806278">
        <ele>300.893585</ele>
        <time>2021-11-07T13:00:59.966Z</time>
      </trkpt>
      <trkpt lat="47.551651" lon="7.806246">
        <ele>300.860872</ele>
        <time>2021-11-07T13:01:03.729Z</time>
      </trkpt>
      <trkpt lat="47.551671" lon="7.806117">
        <ele>300.790122</ele>
        <time>2021-11-07T13:01:05.043Z</time>
      </trkpt>
      <trkpt lat="47.551681" lon="7.805477">
        <ele>300.447932</ele>
        <time>2021-11-07T13:01:12.741Z</time>
      </trkpt>
      <trkpt lat="47.551709" lon="7.805000">
        <ele>300.191999</ele>
        <time>2021-11-07T13:01:18.380Z</time>
      </trkpt>
      <trkpt lat="47.551731" lon="7.804667">
        <ele>300.013150</ele>
        <time>2021-11-07T13:01:22.966Z</time>
      </trkpt>
      <trkpt lat="47.551744" lon="7.804473">
        <ele>299.908942</ele>
        <time>2021-11-07T13:01:24.961Z</time>
      </trkpt>
      <trkpt lat="47.551741" lon="7.804294">
        <ele>299.813232</ele>
        <time>2021-11-07T13:01:27.296Z</time>
      </trkpt>
      <trkpt lat="47.551692" lon="7.803510">
        <ele>299.389361</ele>
        <time>2021-11-07T13:01:36.426Z</time>
      </trkpt>
      <trkpt lat="47.551751" lon="7.803369">
        <ele>299.298186</ele>
        <time>2021-11-07T13:01:38.361Z</time>
      </trkpt>
      <trkpt lat="47.551744" lon="7.803277">
        <ele>299.247304</ele>
        <time>2021-11-07T13:01:39.156Z</time>
      </trkpt>
      <trkpt lat="47.551732" lon="7.803125">
        <ele>299.163199</ele>
        <time>2021-11-07T13:01:40.553Z</time>
      </trkpt>
      <trkpt lat="47.551700" lon="7.802648">
        <ele>298.899757</ele>
        <time>2021-11-07T13:01:44.900Z</time>
      </trkpt>
      <trkpt lat="47.551688" lon="7.802394">
        <ele>298.759823</ele>
        <time>2021-11-07T13:01:47.294Z</time>
      </trkpt>
      <trkpt lat="47.551679" lon="7.802228">
        <ele>298.668298</ele>
        <time>2021-11-07T13:01:48.820Z</time>
      </trkpt>
      <trkpt lat="47.551671" lon="7.802077">
        <ele>298.585056</ele>
        <time>2021-11-07T13:01:50.430Z</time>
      </trkpt>
      <trkpt lat="47.551669" lon="7.801853">
        <ele>298.461940</ele>
        <time>2021-11-07T13:01:52.357Z</time>
      </trkpt>
      <trkpt lat="47.551666" lon="7.801632">
        <ele>298.340458</ele>
        <time>2021-11-07T13:01:54.377Z</time>
      </trkpt>
      <trkpt lat="47.551669" lon="7.801438">
        <ele>298.233811</ele>
        <time>2021-11-07T13:01:55.898Z</time>
      </trkpt>
      <trkpt lat="47.551672" lon="7.801147">
        <ele>298.073865</ele>
        <time>2021-11-07T13:01:58.325Z</time>
      </trkpt>
      <trkpt lat="47.551704" lon="7.800451">
        <ele>296.805341</ele>
        <time>2021-11-07T13:02:03.766Z</time>
      </trkpt>
      <trkpt lat="47.551712" lon="7.800249">
        <ele>296.408075</ele>
        <time>2021-11-07T13:02:05.188Z</time>
      </trkpt>
      <trkpt lat="47.551747" lon="7.799841">
        <ele>295.600612</ele>
        <time>2021-11-07T13:02:08.002Z</time>
      </trkpt>
      <trkpt lat="47.551754" lon="7.799766">
        <ele>295.451964</ele>
        <time>2021-11-07T13:02:08.531Z</time>
      </trkpt>
      <trkpt lat="47.551793" lon="7.799434">
        <ele>294.790356</ele>
        <time>2021-11-07T13:02:10.887Z</time>
      </trkpt>
      <trkpt lat="47.551805" lon="7.799326">
        <ele>294.575468</ele>
        <time>2021-11-07T13:02:11.590Z</time>
      </trkpt>
      <trkpt lat="47.551948" lon="7.798607">
        <ele>293.103858</ele>
        <time>2021-11-07T13:02:16.660Z</time>
      </trkpt>
      <trkpt lat="47.552084" lon="7.798083">
        <ele>291.730827</ele>
        <time>2021-11-07T13:02:20.280Z</time>
      </trkpt>
      <trkpt lat="47.552152" lon="7.797876">
        <ele>291.125997</ele>
        <time>2021-11-07T13:02:21.749Z</time>
      </trkpt>
      <trkpt lat="47.552493" lon="7.797048">
        <ele>288.577668</ele>
        <time>2021-11-07T13:02:27.968Z</time>
      </trkpt>
      <trkpt lat="47.552762" lon="7.796425">
        <ele>286.634640</ele>
        <time>2021-11-07T13:02:32.925Z</time>
      </trkpt>
      <trkpt lat="47.552817" lon="7.796239">
        <ele>286.101142</ele>
        <time>2021-11-07T13:02:34.329Z</time>
      </trkpt>
      <trkpt lat="47.552886" lon="7.795976">
        <ele>285.582759</ele>
        <time>2021-11-07T13:02:36.328Z</time>
      </trkpt>
      <trkpt lat="47.552930" lon="7.795600">
        <ele>285.086746</ele>
        <time>2021-11-07T13:02:39.223Z</time>
      </trkpt>
      <trkpt lat="47.552930" lon="7.795600">
        <ele>285.086746</ele>
        <time>2021-11-07T13:02:39.226Z</time>
      </trkpt>
      <trkpt lat="47.552930" lon="7.795600">
        <ele>285.086746</ele>
        <time>2021-11-07T13:02:39.271Z</time>
      </trkpt>
      <trkpt lat="47.552917" lon="7.795354">
        <ele>284.766020</ele>
        <time>2021-11-07T13:02:41.171Z</time>
      </trkpt>
      <trkpt lat="47.552909" lon="7.795229">
        <ele>284.602818</ele>
        <time>2021-11-07T13:02:42.151Z</time>
      </trkpt>
      <trkpt lat="47.552892" lon="7.795106">
        <ele>284.439626</ele>
        <time>2021-11-07T13:02:43.078Z</time>
      </trkpt>
      <trkpt lat="47.552861" lon="7.794992">
        <ele>284.279874</ele>
        <time>2021-11-07T13:02:43.965Z</time>
      </trkpt>
      <trkpt lat="47.552837" lon="7.794925">
        <ele>284.181283</ele>
        <time>2021-11-07T13:02:44.542Z</time>
      </trkpt>
      <trkpt lat="47.552826" lon="7.794894">
        <ele>284.135760</ele>
        <time>2021-11-07T13:02:44.806Z</time>
      </trkpt>
      <trkpt lat="47.552786" lon="7.794796">
        <ele>283.986898</ele>
        <time>2021-11-07T13:02:45.647Z</time>
      </trkpt>
      <trkpt lat="47.552763" lon="7.794750">
        <ele>283.912487</ele>
        <time>2021-11-07T13:02:46.168Z</time>
      </trkpt>
      <trkpt lat="47.552644" lon="7.794507">
        <ele>283.522251</ele>
        <time>2021-11-07T13:02:48.440Z</time>
      </trkpt>
      <trkpt lat="47.552532" lon="7.794285">
        <ele>283.161988</ele>
        <time>2021-11-07T13:02:50.573Z</time>
      </trkpt>
      <trkpt lat="47.552494" lon="7.794200">
        <ele>283.029466</ele>
        <time>2021-11-07T13:02:51.291Z</time>
      </trkpt>
      <trkpt lat="47.552384" lon="7.793915">
        <ele>282.602726</ele>
        <time>2021-11-07T13:02:53.970Z</time>
      </trkpt>
      <trkpt lat="47.552369" lon="7.793872">
        <ele>282.539810</ele>
        <time>2021-11-07T13:02:54.573Z</time>
      </trkpt>
      <trkpt lat="47.552292" lon="7.793607">
        <ele>282.163154</ele>
        <time>2021-11-07T13:02:56.596Z</time>
      </trkpt>
      <trkpt lat="47.552233" lon="7.793294">
        <ele>281.736719</ele>
        <time>2021-11-07T13:02:59.374Z</time>
      </trkpt>
      <trkpt lat="47.552216" lon="7.793160">
        <ele>281.557804</ele>
        <time>2021-11-07T13:03:00.315Z</time>
      </trkpt>
      <trkpt lat="47.552198" lon="7.792976">
        <ele>281.313837</ele>
        <time>2021-11-07T13:03:01.829Z</time>
      </trkpt>
      <trkpt lat="47.552184" lon="7.792540">
        <ele>280.741070</ele>
        <time>2021-11-07T13:03:05.248Z</time>
      </trkpt>
      <trkpt lat="47.552180" lon="7.792294">
        <ele>280.418176</ele>
        <time>2021-11-07T13:03:07.429Z</time>
      </trkpt>
      <trkpt lat="47.552285" lon="7.792311">
        <ele>280.212816</ele>
        <time>2021-11-07T13:03:08.927Z</time>
      </trkpt>
      <trkpt lat="47.552522" lon="7.792324">
        <ele>279.751716</ele>
        <time>2021-11-07T13:03:12.776Z</time>
      </trkpt>
      <trkpt lat="47.552612" lon="7.792307">
        <ele>279.575319</ele>
        <time>2021-11-07T13:03:14.057Z</time>
      </trkpt>
      <trkpt lat="47.552708" lon="7.792288">
        <ele>279.387015</ele>
        <time>2021-11-07T13:03:15.469Z</time>
      </trkpt>
      <trkpt lat="47.552708" lon="7.792288">
        <ele>279.387015</ele>
        <time>2021-11-07T13:03:15.489Z</time>
      </trkpt>
      <trkpt lat="47.552708" lon="7.792288">
        <ele>279.387015</ele>
        <time>2021-11-07T13:03:15.510Z</time>
      </trkpt>
      <trkpt lat="47.553011" lon="7.792201">
        <ele>278.771868</ele>
        <time>2021-11-07T13:03:20.126Z</time>
      </trkpt>
      <trkpt lat="47.553144" lon="7.792160">
        <ele>278.432808</ele>
        <time>2021-11-07T13:03:22.173Z</time>
      </trkpt>
      <trkpt lat="47.553340" lon="7.792098">
        <ele>277.932591</ele>
        <time>2021-11-07T13:03:25.188Z</time>
      </trkpt>
      <trkpt lat="47.553447" lon="7.792045">
        <ele>277.651005</ele>
        <time>2021-11-07T13:03:33.047Z</time>
      </trkpt>
      <trkpt lat="47.553588" lon="7.791974">
        <ele>277.279319</ele>
        <time>2021-11-07T13:03:43.413Z</time>
      </trkpt>
      <trkpt lat="47.553765" lon="7.791892">
        <ele>276.816458</ele>
        <time>2021-11-07T13:03:56.269Z</time>
      </trkpt>
      <trkpt lat="47.553805" lon="7.791874">
        <ele>276.712120</ele>
        <time>2021-11-07T13:03:59.182Z</time>
      </trkpt>
      <trkpt lat="47.553889" lon="7.791874">
        <ele>276.502466</ele>
        <time>2021-11-07T13:04:05.072Z</time>
      </trkpt>
      <trkpt lat="47.554067" lon="7.791938">
        <ele>276.045307</ele>
        <time>2021-11-07T13:04:17.758Z</time>
      </trkpt>
      <trkpt lat="47.554162" lon="7.791971">
        <ele>275.801770</ele>
        <time>2021-11-07T13:04:24.565Z</time>
      </trkpt>
      <trkpt lat="47.554211" lon="7.791989">
        <ele>275.675769</ele>
        <time>2021-11-07T13:04:28.102Z</time>
      </trkpt>
      <trkpt lat="47.554342" lon="7.792039">
        <ele>275.338136</ele>
        <time>2021-11-07T13:04:37.504Z</time>
      </trkpt>
      <trkpt lat="47.554504" lon="7.792023">
        <ele>274.932906</ele>
        <time>2021-11-07T13:04:48.728Z</time>
      </trkpt>
      <trkpt lat="47.554581" lon="7.792014">
        <ele>274.740127</ele>
        <time>2021-11-07T13:04:54.157Z</time>
      </trkpt>
      <trkpt lat="47.554682" lon="7.792286">
        <ele>274.182787</ele>
        <time>2021-11-07T13:05:08.717Z</time>
      </trkpt>
      <trkpt lat="47.554823" lon="7.792244">
        <ele>273.731484</ele>
        <time>2021-11-07T13:05:18.715Z</time>
      </trkpt>
      <trkpt lat="47.554849" lon="7.792237">
        <ele>273.648561</ele>
        <time>2021-11-07T13:05:20.525Z</time>
      </trkpt>
      <trkpt lat="47.554849" lon="7.792237">
        <ele>273.648561</ele>
        <time>2021-11-07T13:05:20.536Z</time>
      </trkpt>
      <trkpt lat="47.554849" lon="7.792237">
        <ele>273.648561</ele>
        <time>2021-11-07T13:05:20.547Z</time>
      </trkpt>
      <trkpt lat="47.555085" lon="7.792163">
        <ele>272.891603</ele>
        <time>2021-11-07T13:05:37.333Z</time>
      </trkpt>
      <trkpt lat="47.555027" lon="7.791948">
        <ele>272.401259</ele>
        <time>2021-11-07T13:05:41.833Z</time>
      </trkpt>
      <trkpt lat="47.554911" lon="7.791459">
        <ele>271.303569</ele>
        <time>2021-11-07T13:05:52.128Z</time>
      </trkpt>
      <trkpt lat="47.554756" lon="7.790897">
        <ele>270.017841</ele>
        <time>2021-11-07T13:06:04.095Z</time>
      </trkpt>
      <trkpt lat="47.554788" lon="7.790844">
        <ele>269.867238</ele>
        <time>2021-11-07T13:06:05.446Z</time>
      </trkpt>
      <trkpt lat="47.554858" lon="7.790696">
        <ele>269.484503</ele>
        <time>2021-11-07T13:06:09.169Z</time>
      </trkpt>
      <trkpt lat="47.554865" lon="7.790678">
        <ele>269.440507</ele>
        <time>2021-11-07T13:06:09.526Z</time>
      </trkpt>
      <trkpt lat="47.554999" lon="7.790090">
        <ele>268.539531</ele>
        <time>2021-11-07T13:06:21.673Z</time>
      </trkpt>
      <trkpt lat="47.555031" lon="7.789894">
        <ele>268.416472</ele>
        <time>2021-11-07T13:06:25.577Z</time>
      </trkpt>
      <trkpt lat="47.555052" lon="7.789771">
        <ele>268.339047</ele>
        <time>2021-11-07T13:06:28.122Z</time>
      </trkpt>
      <trkpt lat="47.555062" lon="7.789726">
        <ele>268.310135</ele>
        <time>2021-11-07T13:06:29.117Z</time>
      </trkpt>
      <trkpt lat="47.555085" lon="7.789685">
        <ele>268.277600</ele>
        <time>2021-11-07T13:06:30.222Z</time>
      </trkpt>
      <trkpt lat="47.555936" lon="7.788828">
        <ele>267.347202</ele>
        <time>2021-11-07T13:07:04.938Z</time>
      </trkpt>
      <trkpt lat="47.556069" lon="7.788614">
        <ele>267.169671</ele>
        <time>2021-11-07T13:07:09.263Z</time>
      </trkpt>
      <trkpt lat="47.556111" lon="7.788537">
        <ele>267.109255</ele>
        <time>2021-11-07T13:07:10.715Z</time>
      </trkpt>
      <trkpt lat="47.556137" lon="7.788488">
        <ele>267.118247</ele>
        <time>2021-11-07T13:07:11.828Z</time>
      </trkpt>
      <trkpt lat="47.556249" lon="7.788270">
        <ele>267.801361</ele>
        <time>2021-11-07T13:07:16.739Z</time>
      </trkpt>
      <trkpt lat="47.556357" lon="7.788058">
        <ele>268.463625</ele>
        <time>2021-11-07T13:07:21.642Z</time>
      </trkpt>
      <trkpt lat="47.556539" lon="7.787710">
        <ele>269.561323</ele>
        <time>2021-11-07T13:07:30.256Z</time>
      </trkpt>
      <trkpt lat="47.556658" lon="7.787468">
        <ele>270.307875</ele>
        <time>2021-11-07T13:07:36.567Z</time>
      </trkpt>
      <trkpt lat="47.556783" lon="7.787207">
        <ele>271.105828</ele>
        <time>2021-11-07T13:07:43.459Z</time>
      </trkpt>
      <trkpt lat="47.556917" lon="7.786943">
        <ele>271.929438</ele>
        <time>2021-11-07T13:07:50.968Z</time>
      </trkpt>
      <trkpt lat="47.556949" lon="7.786751">
        <ele>272.422523</ele>
        <time>2021-11-07T13:07:55.487Z</time>
      </trkpt>
      <trkpt lat="47.556960" lon="7.786686">
        <ele>272.589601</ele>
        <time>2021-11-07T13:07:57.040Z</time>
      </trkpt>
      <trkpt lat="47.556958" lon="7.786609">
        <ele>272.781723</ele>
        <time>2021-11-07T13:07:58.795Z</time>
      </trkpt>
      <trkpt lat="47.556958" lon="7.786609">
        <ele>272.781723</ele>
        <time>2021-11-07T13:07:58.825Z</time>
      </trkpt>
      <trkpt lat="47.557035" lon="7.786628">
        <ele>273.070114</ele>
        <time>2021-11-07T13:08:01.430Z</time>
      </trkpt>
      <trkpt lat="47.557118" lon="7.786638">
        <ele>273.377768</ele>
        <time>2021-11-07T13:08:04.467Z</time>
      </trkpt>
      <trkpt lat="47.557180" lon="7.786638">
        <ele>273.606825</ele>
        <time>2021-11-07T13:08:06.590Z</time>
      </trkpt>
      <trkpt lat="47.557490" lon="7.786586">
        <ele>274.499582</ele>
        <time>2021-11-07T13:08:17.136Z</time>
      </trkpt>
      <trkpt lat="47.557562" lon="7.786575">
        <ele>274.699789</ele>
        <time>2021-11-07T13:08:19.382Z</time>
      </trkpt>
      <trkpt lat="47.557711" lon="7.786536">
        <ele>275.118300</ele>
        <time>2021-11-07T13:08:24.108Z</time>
      </trkpt>
      <trkpt lat="47.557823" lon="7.786486">
        <ele>275.441844</ele>
        <time>2021-11-07T13:08:27.492Z</time>
      </trkpt>
      <trkpt lat="47.557901" lon="7.786427">
        <ele>275.684074</ele>
        <time>2021-11-07T13:08:29.790Z</time>
      </trkpt>
      <trkpt lat="47.557921" lon="7.786413">
        <ele>275.745255</ele>
        <time>2021-11-07T13:08:30.381Z</time>
      </trkpt>
      <trkpt lat="47.558006" lon="7.786349">
        <ele>276.008974</ele>
        <time>2021-11-07T13:08:32.904Z</time>
      </trkpt>
      <trkpt lat="47.558071" lon="7.786282">
        <ele>276.227982</ele>
        <time>2021-11-07T13:08:34.828Z</time>
      </trkpt>
      <trkpt lat="47.558166" lon="7.786166">
        <ele>276.568468</ele>
        <time>2021-11-07T13:08:37.859Z</time>
      </trkpt>
      <trkpt lat="47.558367" lon="7.785913">
        <ele>277.297929</ele>
        <time>2021-11-07T13:08:43.974Z</time>
      </trkpt>
      <trkpt lat="47.558577" lon="7.785598">
        <ele>278.124433</ele>
        <time>2021-11-07T13:08:50.386Z</time>
      </trkpt>
      <trkpt lat="47.558660" lon="7.785434">
        <ele>278.507075</ele>
        <time>2021-11-07T13:08:53.060Z</time>
      </trkpt>
      <trkpt lat="47.558747" lon="7.785215">
        <ele>278.724117</ele>
        <time>2021-11-07T13:08:56.479Z</time>
      </trkpt>
      <trkpt lat="47.558782" lon="7.785128">
        <ele>278.739998</ele>
        <time>2021-11-07T13:08:57.548Z</time>
      </trkpt>
      <trkpt lat="47.558822" lon="7.785030">
        <ele>278.757956</ele>
        <time>2021-11-07T13:08:58.892Z</time>
      </trkpt>
      <trkpt lat="47.558920" lon="7.784817">
        <ele>278.798376</ele>
        <time>2021-11-07T13:09:02.083Z</time>
      </trkpt>
      <trkpt lat="47.558986" lon="7.784674">
        <ele>278.825540</ele>
        <time>2021-11-07T13:09:03.851Z</time>
      </trkpt>
      <trkpt lat="47.558935" lon="7.784583">
        <ele>278.844087</ele>
        <time>2021-11-07T13:09:05.091Z</time>
      </trkpt>
      <trkpt lat="47.558900" lon="7.784465">
        <ele>278.864296</ele>
        <time>2021-11-07T13:09:06.513Z</time>
      </trkpt>
      <trkpt lat="47.558878" lon="7.784352">
        <ele>278.882736</ele>
        <time>2021-11-07T13:09:07.841Z</time>
      </trkpt>
      <trkpt lat="47.558835" lon="7.784082">
        <ele>278.926233</ele>
        <time>2021-11-07T13:09:10.375Z</time>
      </trkpt>
      <trkpt lat="47.558788" lon="7.783782">
        <ele>278.974522</ele>
        <time>2021-11-07T13:09:13.654Z</time>
      </trkpt>
      <trkpt lat="47.558766" lon="7.783650">
        <ele>278.995841</ele>
        <time>2021-11-07T13:09:14.773Z</time>
      </trkpt>
      <trkpt lat="47.558609" lon="7.782690">
        <ele>279.048199</ele>
        <time>2021-11-07T13:09:24.257Z</time>
      </trkpt>
      <trkpt lat="47.558561" lon="7.782282">
        <ele>278.907002</ele>
        <time>2021-11-07T13:09:28.251Z</time>
      </trkpt>
      <trkpt lat="47.558538" lon="7.782086">
        <ele>278.839177</ele>
        <time>2021-11-07T13:09:29.956Z</time>
      </trkpt>
      <trkpt lat="47.558528" lon="7.781999">
        <ele>278.809089</ele>
        <time>2021-11-07T13:09:30.786Z</time>
      </trkpt>
      <trkpt lat="47.558488" lon="7.781576">
        <ele>278.663467</ele>
        <time>2021-11-07T13:09:34.526Z</time>
      </trkpt>
      <trkpt lat="47.558475" lon="7.781460">
        <ele>278.623377</ele>
        <time>2021-11-07T13:09:35.525Z</time>
      </trkpt>
      <trkpt lat="47.558415" lon="7.780958">
        <ele>278.449567</ele>
        <time>2021-11-07T13:09:39.884Z</time>
      </trkpt>
      <trkpt lat="47.558406" lon="7.780884">
        <ele>278.423931</ele>
        <time>2021-11-07T13:09:40.552Z</time>
      </trkpt>
      <trkpt lat="47.558365" lon="7.780533">
        <ele>278.302485</ele>
        <time>2021-11-07T13:09:43.626Z</time>
      </trkpt>
      <trkpt lat="47.558325" lon="7.780058">
        <ele>278.125256</ele>
        <time>2021-11-07T13:09:49.566Z</time>
      </trkpt>
      <trkpt lat="47.558089" lon="7.777904">
        <ele>277.233112</ele>
        <time>2021-11-07T13:10:16.991Z</time>
      </trkpt>
      <trkpt lat="47.557841" lon="7.775695">
        <ele>275.640776</ele>
        <time>2021-11-07T13:10:43.038Z</time>
      </trkpt>
      <trkpt lat="47.557796" lon="7.775255">
        <ele>275.305391</ele>
        <time>2021-11-07T13:10:48.032Z</time>
      </trkpt>
      <trkpt lat="47.557718" lon="7.774680">
        <ele>274.896478</ele>
        <time>2021-11-07T13:10:54.623Z</time>
      </trkpt>
      <trkpt lat="47.557636" lon="7.774194">
        <ele>274.569299</ele>
        <time>2021-11-07T13:11:00.239Z</time>
      </trkpt>
      <trkpt lat="47.557423" lon="7.773208">
        <ele>273.893148</ele>
        <time>2021-11-07T13:11:12.045Z</time>
      </trkpt>
      <trkpt lat="47.556998" lon="7.771574">
        <ele>273.585826</ele>
        <time>2021-11-07T13:11:34.687Z</time>
      </trkpt>
      <trkpt lat="47.556970" lon="7.771488">
        <ele>273.607410</ele>
        <time>2021-11-07T13:11:36.193Z</time>
      </trkpt>
      <trkpt lat="47.556644" lon="7.770245">
        <ele>273.908851</ele>
        <time>2021-11-07T13:11:56.613Z</time>
      </trkpt>
      <trkpt lat="47.556588" lon="7.770024">
        <ele>273.962212</ele>
        <time>2021-11-07T13:12:00.290Z</time>
      </trkpt>
      <trkpt lat="47.556325" lon="7.769016">
        <ele>274.670148</ele>
        <time>2021-11-07T13:12:18.102Z</time>
      </trkpt>
      <trkpt lat="47.556308" lon="7.768946">
        <ele>274.720389</ele>
        <time>2021-11-07T13:12:19.463Z</time>
      </trkpt>
      <trkpt lat="47.556180" lon="7.768445">
        <ele>275.082167</ele>
        <time>2021-11-07T13:12:28.541Z</time>
      </trkpt>
      <trkpt lat="47.555779" lon="7.766907">
        <ele>276.075222</ele>
        <time>2021-11-07T13:12:55.393Z</time>
      </trkpt>
      <trkpt lat="47.555705" lon="7.766563">
        <ele>276.249554</ele>
        <time>2021-11-07T13:13:01.029Z</time>
      </trkpt>
      <trkpt lat="47.555683" lon="7.766459">
        <ele>276.302179</ele>
        <time>2021-11-07T13:13:02.689Z</time>
      </trkpt>
      <trkpt lat="47.555631" lon="7.766213">
        <ele>276.426649</ele>
        <time>2021-11-07T13:13:05.802Z</time>
      </trkpt>
      <trkpt lat="47.555496" lon="7.765461">
        <ele>276.802375</ele>
        <time>2021-11-07T13:13:14.649Z</time>
      </trkpt>
      <trkpt lat="47.555465" lon="7.765253">
        <ele>276.905227</ele>
        <time>2021-11-07T13:13:17.230Z</time>
      </trkpt>
      <trkpt lat="47.555426" lon="7.764999">
        <ele>277.031004</ele>
        <time>2021-11-07T13:13:20.193Z</time>
      </trkpt>
      <trkpt lat="47.555344" lon="7.764439">
        <ele>277.104235</ele>
        <time>2021-11-07T13:13:26.801Z</time>
      </trkpt>
      <trkpt lat="47.555256" lon="7.763536">
        <ele>277.182934</ele>
        <time>2021-11-07T13:13:36.208Z</time>
      </trkpt>
      <trkpt lat="47.555215" lon="7.763047">
        <ele>277.225438</ele>
        <time>2021-11-07T13:13:41.200Z</time>
      </trkpt>
      <trkpt lat="47.555178" lon="7.762514">
        <ele>277.271656</ele>
        <time>2021-11-07T13:13:46.619Z</time>
      </trkpt>
      <trkpt lat="47.555160" lon="7.762248">
        <ele>277.272997</ele>
        <time>2021-11-07T13:13:49.178Z</time>
      </trkpt>
      <trkpt lat="47.555151" lon="7.762144">
        <ele>277.241482</ele>
        <time>2021-11-07T13:13:50.214Z</time>
      </trkpt>
      <trkpt lat="47.555137" lon="7.761950">
        <ele>277.182840</ele>
        <time>2021-11-07T13:13:52.114Z</time>
      </trkpt>
      <trkpt lat="47.555021" lon="7.760351">
        <ele>276.699462</ele>
        <time>2021-11-07T13:14:06.778Z</time>
      </trkpt>
      <trkpt lat="47.555025" lon="7.760185">
        <ele>276.649535</ele>
        <time>2021-11-07T13:14:08.182Z</time>
      </trkpt>
      <trkpt lat="47.555058" lon="7.757801">
        <ele>275.430943</ele>
        <time>2021-11-07T13:14:28.331Z</time>
      </trkpt>
      <trkpt lat="47.555069" lon="7.757021">
        <ele>274.984774</ele>
        <time>2021-11-07T13:14:34.852Z</time>
      </trkpt>
      <trkpt lat="47.555067" lon="7.756625">
        <ele>274.779974</ele>
        <time>2021-11-07T13:14:38.185Z</time>
      </trkpt>
      <trkpt lat="47.555039" lon="7.756348">
        <ele>274.636617</ele>
        <time>2021-11-07T13:14:40.471Z</time>
      </trkpt>
      <trkpt lat="47.554914" lon="7.755680">
        <ele>274.281819</ele>
        <time>2021-11-07T13:14:46.344Z</time>
      </trkpt>
      <trkpt lat="47.554777" lon="7.755293">
        <ele>274.058146</ele>
        <time>2021-11-07T13:14:50.073Z</time>
      </trkpt>
      <trkpt lat="47.554452" lon="7.754585">
        <ele>273.619893</ele>
        <time>2021-11-07T13:14:57.560Z</time>
      </trkpt>
      <trkpt lat="47.554347" lon="7.754347">
        <ele>273.557041</ele>
        <time>2021-11-07T13:15:00.073Z</time>
      </trkpt>
      <trkpt lat="47.554275" lon="7.754160">
        <ele>273.519025</ele>
        <time>2021-11-07T13:15:02.029Z</time>
      </trkpt>
      <trkpt lat="47.554212" lon="7.753931">
        <ele>273.475356</ele>
        <time>2021-11-07T13:15:04.311Z</time>
      </trkpt>
      <trkpt lat="47.554176" lon="7.753798">
        <ele>273.450052</ele>
        <time>2021-11-07T13:15:05.612Z</time>
      </trkpt>
      <trkpt lat="47.554122" lon="7.753011">
        <ele>273.310364</ele>
        <time>2021-11-07T13:15:12.994Z</time>
      </trkpt>
      <trkpt lat="47.554075" lon="7.752001">
        <ele>273.131591</ele>
        <time>2021-11-07T13:15:22.872Z</time>
      </trkpt>
      <trkpt lat="47.554273" lon="7.750704">
        <ele>273.338134</ele>
        <time>2021-11-07T13:15:36.583Z</time>
      </trkpt>
      <trkpt lat="47.554302" lon="7.750411">
        <ele>273.384808</ele>
        <time>2021-11-07T13:15:39.695Z</time>
      </trkpt>
      <trkpt lat="47.554319" lon="7.750058">
        <ele>273.440586</ele>
        <time>2021-11-07T13:15:43.459Z</time>
      </trkpt>
      <trkpt lat="47.554786" lon="7.747259">
        <ele>274.352402</ele>
        <time>2021-11-07T13:16:16.268Z</time>
      </trkpt>
      <trkpt lat="47.554853" lon="7.745965">
        <ele>274.721197</ele>
        <time>2021-11-07T13:16:31.710Z</time>
      </trkpt>
      <trkpt lat="47.554871" lon="7.745667">
        <ele>274.791927</ele>
        <time>2021-11-07T13:16:35.102Z</time>
      </trkpt>
      <trkpt lat="47.554910" lon="7.745450">
        <ele>274.845015</ele>
        <time>2021-11-07T13:16:37.560Z</time>
      </trkpt>
      <trkpt lat="47.555091" lon="7.744936">
        <ele>274.982073</ele>
        <time>2021-11-07T13:16:43.791Z</time>
      </trkpt>
      <trkpt lat="47.555182" lon="7.744738">
        <ele>275.038704</ele>
        <time>2021-11-07T13:16:46.327Z</time>
      </trkpt>
      <trkpt lat="47.555226" lon="7.744660">
        <ele>275.062737</ele>
        <time>2021-11-07T13:16:47.499Z</time>
      </trkpt>
      <trkpt lat="47.555416" lon="7.744384">
        <ele>275.155940</ele>
        <time>2021-11-07T13:16:51.425Z</time>
      </trkpt>
      <trkpt lat="47.555572" lon="7.744136">
        <ele>275.144517</ele>
        <time>2021-11-07T13:16:54.853Z</time>
      </trkpt>
      <trkpt lat="47.555722" lon="7.743661">
        <ele>275.124913</ele>
        <time>2021-11-07T13:17:00.022Z</time>
      </trkpt>
      <trkpt lat="47.555842" lon="7.742820">
        <ele>275.092780</ele>
        <time>2021-11-07T13:17:08.178Z</time>
      </trkpt>
      <trkpt lat="47.556109" lon="7.741529">
        <ele>275.192026</ele>
        <time>2021-11-07T13:17:21.073Z</time>
      </trkpt>
      <trkpt lat="47.556198" lon="7.740232">
        <ele>275.626944</ele>
        <time>2021-11-07T13:17:36.413Z</time>
      </trkpt>
      <trkpt lat="47.556465" lon="7.739495">
        <ele>275.905997</ele>
        <time>2021-11-07T13:17:46.171Z</time>
      </trkpt>
      <trkpt lat="47.556492" lon="7.739412">
        <ele>275.936735</ele>
        <time>2021-11-07T13:17:47.489Z</time>
      </trkpt>
      <trkpt lat="47.556461" lon="7.739007">
        <ele>276.170054</ele>
        <time>2021-11-07T13:17:52.139Z</time>
      </trkpt>
      <trkpt lat="47.556427" lon="7.738558">
        <ele>276.437046</ele>
        <time>2021-11-07T13:17:57.822Z</time>
      </trkpt>
      <trkpt lat="47.556423" lon="7.738362">
        <ele>276.552921</ele>
        <time>2021-11-07T13:18:00.387Z</time>
      </trkpt>
      <trkpt lat="47.556422" lon="7.737881">
        <ele>276.837160</ele>
        <time>2021-11-07T13:18:06.385Z</time>
      </trkpt>
      <trkpt lat="47.556447" lon="7.737561">
        <ele>277.027520</ele>
        <time>2021-11-07T13:18:10.378Z</time>
      </trkpt>
      <trkpt lat="47.556486" lon="7.737232">
        <ele>277.224912</ele>
        <time>2021-11-07T13:18:14.713Z</time>
      </trkpt>
      <trkpt lat="47.556578" lon="7.736762">
        <ele>277.514095</ele>
        <time>2021-11-07T13:18:20.754Z</time>
      </trkpt>
      <trkpt lat="47.556614" lon="7.736602">
        <ele>277.597435</ele>
        <time>2021-11-07T13:18:22.824Z</time>
      </trkpt>
      <trkpt lat="47.556658" lon="7.736525">
        <ele>277.646513</ele>
        <time>2021-11-07T13:18:24.118Z</time>
      </trkpt>
      <trkpt lat="47.556683" lon="7.736590">
        <ele>277.682904</ele>
        <time>2021-11-07T13:18:25.169Z</time>
      </trkpt>
      <trkpt lat="47.557404" lon="7.737174">
        <ele>278.275156</ele>
        <time>2021-11-07T13:18:39.743Z</time>
      </trkpt>
      <trkpt lat="47.557623" lon="7.737435">
        <ele>278.477724</ele>
        <time>2021-11-07T13:18:44.963Z</time>
      </trkpt>
      <trkpt lat="47.557826" lon="7.737749">
        <ele>278.689234</ele>
        <time>2021-11-07T13:18:50.192Z</time>
      </trkpt>
      <trkpt lat="47.558367" lon="7.738621">
        <ele>279.000800</ele>
        <time>2021-11-07T13:19:02.932Z</time>
      </trkpt>
      <trkpt lat="47.558654" lon="7.739123">
        <ele>279.131614</ele>
        <time>2021-11-07T13:19:10.197Z</time>
      </trkpt>
      <trkpt lat="47.559301" lon="7.740330">
        <ele>279.394742</ele>
        <time>2021-11-07T13:19:26.253Z</time>
      </trkpt>
      <trkpt lat="47.559479" lon="7.740609">
        <ele>279.434430</ele>
        <time>2021-11-07T13:19:30.342Z</time>
      </trkpt>
      <trkpt lat="47.560330" lon="7.741464">
        <ele>279.591919</ele>
        <time>2021-11-07T13:19:45.842Z</time>
      </trkpt>
      <trkpt lat="47.560744" lon="7.741723">
        <ele>279.689109</ele>
        <time>2021-11-07T13:19:53.296Z</time>
      </trkpt>
      <trkpt lat="47.561117" lon="7.742197">
        <ele>279.821371</ele>
        <time>2021-11-07T13:20:00.789Z</time>
      </trkpt>
      <trkpt lat="47.561269" lon="7.742527">
        <ele>279.893945</ele>
        <time>2021-11-07T13:20:05.082Z</time>
      </trkpt>
      <trkpt lat="47.561334" lon="7.742782">
        <ele>279.943457</ele>
        <time>2021-11-07T13:20:07.885Z</time>
      </trkpt>
      <trkpt lat="47.561550" lon="7.743109">
        <ele>280.026574</ele>
        <time>2021-11-07T13:20:12.666Z</time>
      </trkpt>
      <trkpt lat="47.562164" lon="7.743444">
        <ele>280.371034</ele>
        <time>2021-11-07T13:20:23.515Z</time>
      </trkpt>
      <trkpt lat="47.562877" lon="7.743938">
        <ele>280.957396</ele>
        <time>2021-11-07T13:20:37.749Z</time>
      </trkpt>
      <trkpt lat="47.563547" lon="7.744879">
        <ele>281.664983</ele>
        <time>2021-11-07T13:20:54.870Z</time>
      </trkpt>
      <trkpt lat="47.563664" lon="7.745030">
        <ele>281.792204</ele>
        <time>2021-11-07T13:20:57.695Z</time>
      </trkpt>
      <trkpt lat="47.563676" lon="7.745045">
        <ele>281.805077</ele>
        <time>2021-11-07T13:20:58.020Z</time>
      </trkpt>
      <trkpt lat="47.563977" lon="7.745226">
        <ele>282.071442</ele>
        <time>2021-11-07T13:21:04.085Z</time>
      </trkpt>
      <trkpt lat="47.564839" lon="7.745274">
        <ele>282.778782</ele>
        <time>2021-11-07T13:21:19.924Z</time>
      </trkpt>
      <trkpt lat="47.565550" lon="7.745484">
        <ele>283.305499</ele>
        <time>2021-11-07T13:21:31.859Z</time>
      </trkpt>
      <trkpt lat="47.565857" lon="7.745535">
        <ele>283.520746</ele>
        <time>2021-11-07T13:21:37.049Z</time>
      </trkpt>
      <trkpt lat="47.566598" lon="7.745590">
        <ele>284.037700</ele>
        <time>2021-11-07T13:21:49.622Z</time>
      </trkpt>
      <trkpt lat="47.568012" lon="7.745673">
        <ele>286.056297</ele>
        <time>2021-11-07T13:22:18.136Z</time>
      </trkpt>
      <trkpt lat="47.568512" lon="7.745651">
        <ele>286.829170</ele>
        <time>2021-11-07T13:22:29.826Z</time>
      </trkpt>
      <trkpt lat="47.568671" lon="7.745675">
        <ele>287.121222</ele>
        <time>2021-11-07T13:22:34.086Z</time>
      </trkpt>
      <trkpt lat="47.569208" lon="7.745857">
        <ele>288.288306</ele>
        <time>2021-11-07T13:22:46.402Z</time>
      </trkpt>
      <trkpt lat="47.569397" lon="7.745868">
        <ele>288.689040</ele>
        <time>2021-11-07T13:22:51.154Z</time>
      </trkpt>
      <trkpt lat="47.569457" lon="7.745866">
        <ele>288.816191</ele>
        <time>2021-11-07T13:22:52.549Z</time>
      </trkpt>
      <trkpt lat="47.569860" lon="7.745855">
        <ele>289.670153</ele>
        <time>2021-11-07T13:23:02.542Z</time>
      </trkpt>
      <trkpt lat="47.570644" lon="7.745855">
        <ele>291.000098</ele>
        <time>2021-11-07T13:23:20.227Z</time>
      </trkpt>
      <trkpt lat="47.570776" lon="7.745821">
        <ele>291.117883</ele>
        <time>2021-11-07T13:23:23.180Z</time>
      </trkpt>
      <trkpt lat="47.570862" lon="7.745765">
        <ele>291.200462</ele>
        <time>2021-11-07T13:23:24.670Z</time>
      </trkpt>
      <trkpt lat="47.571059" lon="7.745555">
        <ele>291.413790</ele>
        <time>2021-11-07T13:23:29.159Z</time>
      </trkpt>
      <trkpt lat="47.571328" lon="7.745167">
        <ele>291.743770</ele>
        <time>2021-11-07T13:23:35.208Z</time>
      </trkpt>
      <trkpt lat="47.571549" lon="7.744993">
        <ele>291.963767</ele>
        <time>2021-11-07T13:23:38.885Z</time>
      </trkpt>
      <trkpt lat="47.571635" lon="7.744987">
        <ele>292.039456</ele>
        <time>2021-11-07T13:23:40.892Z</time>
      </trkpt>
      <trkpt lat="47.571932" lon="7.744969">
        <ele>292.300776</ele>
        <time>2021-11-07T13:23:45.391Z</time>
      </trkpt>
      <trkpt lat="47.572019" lon="7.744947">
        <ele>292.368286</ele>
        <time>2021-11-07T13:23:47.207Z</time>
      </trkpt>
      <trkpt lat="47.572141" lon="7.744916">
        <ele>292.442659</ele>
        <time>2021-11-07T13:23:49.087Z</time>
      </trkpt>
      <trkpt lat="47.572222" lon="7.744878">
        <ele>292.493707</ele>
        <time>2021-11-07T13:23:50.574Z</time>
      </trkpt>
      <trkpt lat="47.572305" lon="7.744816">
        <ele>292.549553</ele>
        <time>2021-11-07T13:23:52.879Z</time>
      </trkpt>
      <trkpt lat="47.572746" lon="7.744402">
        <ele>292.863203</ele>
        <time>2021-11-07T13:24:01.697Z</time>
      </trkpt>
      <trkpt lat="47.572804" lon="7.744340">
        <ele>292.906170</ele>
        <time>2021-11-07T13:24:02.598Z</time>
      </trkpt>
      <trkpt lat="47.572843" lon="7.744284">
        <ele>292.938795</ele>
        <time>2021-11-07T13:24:03.328Z</time>
      </trkpt>
      <trkpt lat="47.572880" lon="7.744172">
        <ele>292.989347</ele>
        <time>2021-11-07T13:24:05.040Z</time>
      </trkpt>
      <trkpt lat="47.572885" lon="7.744155">
        <ele>292.996864</ele>
        <time>2021-11-07T13:24:05.382Z</time>
      </trkpt>
      <trkpt lat="47.572935" lon="7.743884">
        <ele>293.110752</ele>
        <time>2021-11-07T13:24:07.787Z</time>
      </trkpt>
      <trkpt lat="47.572956" lon="7.743671">
        <ele>293.198012</ele>
        <time>2021-11-07T13:24:09.936Z</time>
      </trkpt>
      <trkpt lat="47.572991" lon="7.743466">
        <ele>293.283731</ele>
        <time>2021-11-07T13:24:12.499Z</time>
      </trkpt>
      <trkpt lat="47.573033" lon="7.743262">
        <ele>293.370191</ele>
        <time>2021-11-07T13:24:15.227Z</time>
      </trkpt>
      <trkpt lat="47.573037" lon="7.743243">
        <ele>293.378259</ele>
        <time>2021-11-07T13:24:15.800Z</time>
      </trkpt>
      <trkpt lat="47.573219" lon="7.742624">
        <ele>294.056035</ele>
        <time>2021-11-07T13:24:25.160Z</time>
      </trkpt>
      <trkpt lat="47.573337" lon="7.742540">
        <ele>294.276103</ele>
        <time>2021-11-07T13:24:27.817Z</time>
      </trkpt>
      <trkpt lat="47.573480" lon="7.742520">
        <ele>294.517576</ele>
        <time>2021-11-07T13:24:30.930Z</time>
      </trkpt>
      <trkpt lat="47.573635" lon="7.742528">
        <ele>294.778313</ele>
        <time>2021-11-07T13:24:34.090Z</time>
      </trkpt>
      <trkpt lat="47.573827" lon="7.742607">
        <ele>295.113300</ele>
        <time>2021-11-07T13:24:38.667Z</time>
      </trkpt>
      <trkpt lat="47.573895" lon="7.742636">
        <ele>295.232256</ele>
        <time>2021-11-07T13:24:40.177Z</time>
      </trkpt>
      <trkpt lat="47.573998" lon="7.742684">
        <ele>295.413772</ele>
        <time>2021-11-07T13:24:42.532Z</time>
      </trkpt>
      <trkpt lat="47.574122" lon="7.742787">
        <ele>295.652736</ele>
        <time>2021-11-07T13:24:46.535Z</time>
      </trkpt>
      <trkpt lat="47.574425" lon="7.743464">
        <ele>296.643488</ele>
        <time>2021-11-07T13:25:01.920Z</time>
      </trkpt>
      <trkpt lat="47.574549" lon="7.743645">
        <ele>297.100766</ele>
        <time>2021-11-07T13:25:06.906Z</time>
      </trkpt>
      <trkpt lat="47.574873" lon="7.743935">
        <ele>298.095271</ele>
        <time>2021-11-07T13:25:18.196Z</time>
      </trkpt>
      <trkpt lat="47.575273" lon="7.744077">
        <ele>299.176026</ele>
        <time>2021-11-07T13:25:31.341Z</time>
      </trkpt>
      <trkpt lat="47.576383" lon="7.744201">
        <ele>302.150992</ele>
        <time>2021-11-07T13:26:06.568Z</time>
      </trkpt>
      <trkpt lat="47.576996" lon="7.744361">
        <ele>303.875136</ele>
        <time>2021-11-07T13:26:26.037Z</time>
      </trkpt>
      <trkpt lat="47.577768" lon="7.744768">
        <ele>306.144807</ele>
        <time>2021-11-07T13:26:51.238Z</time>
      </trkpt>
      <trkpt lat="47.578043" lon="7.744969">
        <ele>307.063153</ele>
        <time>2021-11-07T13:27:01.283Z</time>
      </trkpt>
      <trkpt lat="47.578014" lon="7.745032">
        <ele>307.217458</ele>
        <time>2021-11-07T13:27:02.477Z</time>
      </trkpt>
      <trkpt lat="47.578248" lon="7.745231">
        <ele>308.026529</ele>
        <time>2021-11-07T13:27:09.965Z</time>
      </trkpt>
      <trkpt lat="47.579370" lon="7.746311">
        <ele>312.069569</ele>
        <time>2021-11-07T13:27:46.298Z</time>
      </trkpt>
      <trkpt lat="47.579910" lon="7.746660">
        <ele>313.948926</ele>
        <time>2021-11-07T13:28:02.868Z</time>
      </trkpt>
      <trkpt lat="47.580176" lon="7.746758">
        <ele>314.823355</ele>
        <time>2021-11-07T13:28:10.403Z</time>
      </trkpt>
      <trkpt lat="47.580800" lon="7.746847">
        <ele>316.823285</ele>
        <time>2021-11-07T13:28:27.365Z</time>
      </trkpt>
      <trkpt lat="47.583935" lon="7.746691">
        <ele>328.090871</ele>
        <time>2021-11-07T13:29:54.106Z</time>
      </trkpt>
      <trkpt lat="47.584325" lon="7.746826">
        <ele>329.801614</ele>
        <time>2021-11-07T13:30:08.868Z</time>
      </trkpt>
      <trkpt lat="47.584788" lon="7.747084">
        <ele>332.864178</ele>
        <time>2021-11-07T13:30:28.742Z</time>
      </trkpt>
      <trkpt lat="47.585275" lon="7.747497">
        <ele>337.112708</ele>
        <time>2021-11-07T13:30:55.341Z</time>
      </trkpt>
      <trkpt lat="47.585552" lon="7.747648">
        <ele>339.347604</ele>
        <time>2021-11-07T13:31:10.165Z</time>
      </trkpt>
      <trkpt lat="47.585600" lon="7.747675">
        <ele>339.736369</ele>
        <time>2021-11-07T13:31:13.181Z</time>
      </trkpt>
      <trkpt lat="47.586219" lon="7.747726">
        <ele>344.400984</ele>
        <time>2021-11-07T13:31:41.486Z</time>
      </trkpt>
      <trkpt lat="47.586901" lon="7.747621">
        <ele>348.347537</ele>
        <time>2021-11-07T13:32:10.241Z</time>
      </trkpt>
      <trkpt lat="47.587012" lon="7.747608">
        <ele>348.988419</ele>
        <time>2021-11-07T13:32:14.687Z</time>
      </trkpt>
      <trkpt lat="47.587231" lon="7.747583">
        <ele>350.252667</ele>
        <time>2021-11-07T13:32:23.766Z</time>
      </trkpt>
      <trkpt lat="47.587676" lon="7.747616">
        <ele>352.817193</ele>
        <time>2021-11-07T13:32:39.729Z</time>
      </trkpt>
      <trkpt lat="47.587944" lon="7.747712">
        <ele>354.404124</ele>
        <time>2021-11-07T13:32:49.072Z</time>
      </trkpt>
      <trkpt lat="47.588045" lon="7.747762">
        <ele>354.724460</ele>
        <time>2021-11-07T13:32:51.711Z</time>
      </trkpt>
      <trkpt lat="47.588242" lon="7.747872">
        <ele>354.947593</ele>
        <time>2021-11-07T13:32:57.808Z</time>
      </trkpt>
      <trkpt lat="47.588960" lon="7.748448">
        <ele>355.812914</ele>
        <time>2021-11-07T13:33:13.695Z</time>
      </trkpt>
      <trkpt lat="47.589642" lon="7.749241">
        <ele>356.216092</ele>
        <time>2021-11-07T13:33:25.507Z</time>
      </trkpt>
      <trkpt lat="47.590052" lon="7.749933">
        <ele>354.837702</ele>
        <time>2021-11-07T13:33:32.278Z</time>
      </trkpt>
      <trkpt lat="47.590174" lon="7.750202">
        <ele>354.352604</ele>
        <time>2021-11-07T13:33:34.476Z</time>
      </trkpt>
      <trkpt lat="47.590881" lon="7.751756">
        <ele>352.351139</ele>
        <time>2021-11-07T13:33:47.537Z</time>
      </trkpt>
      <trkpt lat="47.591881" lon="7.753444">
        <ele>352.507083</ele>
        <time>2021-11-07T13:34:10.121Z</time>
      </trkpt>
      <trkpt lat="47.592004" lon="7.753676">
        <ele>353.394850</ele>
        <time>2021-11-07T13:34:15.690Z</time>
      </trkpt>
      <trkpt lat="47.592241" lon="7.754241">
        <ele>355.396486</ele>
        <time>2021-11-07T13:34:30.047Z</time>
      </trkpt>
      <trkpt lat="47.592485" lon="7.755255">
        <ele>358.635238</ele>
        <time>2021-11-07T13:34:57.269Z</time>
      </trkpt>
      <trkpt lat="47.592501" lon="7.755402">
        <ele>359.083175</ele>
        <time>2021-11-07T13:35:01.559Z</time>
      </trkpt>
      <trkpt lat="47.592484" lon="7.755586">
        <ele>359.641867</ele>
        <time>2021-11-07T13:35:06.936Z</time>
      </trkpt>
      <trkpt lat="47.592426" lon="7.755881">
        <ele>360.873559</ele>
        <time>2021-11-07T13:35:15.570Z</time>
      </trkpt>
      <trkpt lat="47.592371" lon="7.756099">
        <ele>361.831248</ele>
        <time>2021-11-07T13:35:23.121Z</time>
      </trkpt>
      <trkpt lat="47.592316" lon="7.756315">
        <ele>362.781235</ele>
        <time>2021-11-07T13:35:29.481Z</time>
      </trkpt>
      <trkpt lat="47.592097" lon="7.757042">
        <ele>366.057388</ele>
        <time>2021-11-07T13:35:51.633Z</time>
      </trkpt>
      <trkpt lat="47.592034" lon="7.757251">
        <ele>366.999330</ele>
        <time>2021-11-07T13:35:57.555Z</time>
      </trkpt>
      <trkpt lat="47.591970" lon="7.757544">
        <ele>368.266566</ele>
        <time>2021-11-07T13:36:06.197Z</time>
      </trkpt>
      <trkpt lat="47.591923" lon="7.757894">
        <ele>369.734951</ele>
        <time>2021-11-07T13:36:14.497Z</time>
      </trkpt>
      <trkpt lat="47.591911" lon="7.758184">
        <ele>370.860533</ele>
        <time>2021-11-07T13:36:21.829Z</time>
      </trkpt>
      <trkpt lat="47.591959" lon="7.759015">
        <ele>373.231586</ele>
        <time>2021-11-07T13:36:38.759Z</time>
      </trkpt>
      <trkpt lat="47.592205" lon="7.759833">
        <ele>375.777755</ele>
        <time>2021-11-07T13:36:57.526Z</time>
      </trkpt>
      <trkpt lat="47.592317" lon="7.760056">
        <ele>376.568190</ele>
        <time>2021-11-07T13:37:03.534Z</time>
      </trkpt>
      <trkpt lat="47.592736" lon="7.760559">
        <ele>379.013568</ele>
        <time>2021-11-07T13:37:19.340Z</time>
      </trkpt>
      <trkpt lat="47.593211" lon="7.761047">
        <ele>382.208891</ele>
        <time>2021-11-07T13:37:38.705Z</time>
      </trkpt>
      <trkpt lat="47.593513" lon="7.761296">
        <ele>384.119581</ele>
        <time>2021-11-07T13:37:51.307Z</time>
      </trkpt>
      <trkpt lat="47.593803" lon="7.761400">
        <ele>385.769360</ele>
        <time>2021-11-07T13:38:02.367Z</time>
      </trkpt>
      <trkpt lat="47.594411" lon="7.761312">
        <ele>389.721296</ele>
        <time>2021-11-07T13:38:28.143Z</time>
      </trkpt>
      <trkpt lat="47.595086" lon="7.761325">
        <ele>395.794383</ele>
        <time>2021-11-07T13:39:01.437Z</time>
      </trkpt>
      <trkpt lat="47.595303" lon="7.761207">
        <ele>397.873724</ele>
        <time>2021-11-07T13:39:14.894Z</time>
      </trkpt>
      <trkpt lat="47.595483" lon="7.761108">
        <ele>399.600874</ele>
        <time>2021-11-07T13:39:25.248Z</time>
      </trkpt>
      <trkpt lat="47.595685" lon="7.760825">
        <ele>402.100925</ele>
        <time>2021-11-07T13:39:39.131Z</time>
      </trkpt>
      <trkpt lat="47.595755" lon="7.760659">
        <ele>403.288700</ele>
        <time>2021-11-07T13:39:47.755Z</time>
      </trkpt>
      <trkpt lat="47.595854" lon="7.760335">
        <ele>405.456531</ele>
        <time>2021-11-07T13:39:59.476Z</time>
      </trkpt>
      <trkpt lat="47.596041" lon="7.759870">
        <ele>408.772350</ele>
        <time>2021-11-07T13:40:20.091Z</time>
      </trkpt>
      <trkpt lat="47.596134" lon="7.759703">
        <ele>410.098797</ele>
        <time>2021-11-07T13:40:28.988Z</time>
      </trkpt>
      <trkpt lat="47.596241" lon="7.759593">
        <ele>411.281246</ele>
        <time>2021-11-07T13:40:35.196Z</time>
      </trkpt>
      <trkpt lat="47.596644" lon="7.759494">
        <ele>414.991147</ele>
        <time>2021-11-07T13:40:56.361Z</time>
      </trkpt>
      <trkpt lat="47.596893" lon="7.759520">
        <ele>417.258149</ele>
        <time>2021-11-07T13:41:09.292Z</time>
      </trkpt>
      <trkpt lat="47.597328" lon="7.759556">
        <ele>421.112496</ele>
        <time>2021-11-07T13:41:29.367Z</time>
      </trkpt>
      <trkpt lat="47.597337" lon="7.759555">
        <ele>421.176471</ele>
        <time>2021-11-07T13:41:30.328Z</time>
      </trkpt>
      <trkpt lat="47.598314" lon="7.759510">
        <ele>428.105287</ele>
        <time>2021-11-07T13:42:11.324Z</time>
      </trkpt>
      <trkpt lat="47.598492" lon="7.759485">
        <ele>429.372688</ele>
        <time>2021-11-07T13:42:20.098Z</time>
      </trkpt>
      <trkpt lat="47.598636" lon="7.759436">
        <ele>430.419960</ele>
        <time>2021-11-07T13:42:26.045Z</time>
      </trkpt>
      <trkpt lat="47.599038" lon="7.759240">
        <ele>433.419598</ele>
        <time>2021-11-07T13:42:43.383Z</time>
      </trkpt>
      <trkpt lat="47.599369" lon="7.759291">
        <ele>435.803494</ele>
        <time>2021-11-07T13:42:56.362Z</time>
      </trkpt>
      <trkpt lat="47.599495" lon="7.759407">
        <ele>436.866265</ele>
        <time>2021-11-07T13:43:03.195Z</time>
      </trkpt>
      <trkpt lat="47.599727" lon="7.759652">
        <ele>438.907248</ele>
        <time>2021-11-07T13:43:15.734Z</time>
      </trkpt>
      <trkpt lat="47.599976" lon="7.759788">
        <ele>440.808781</ele>
        <time>2021-11-07T13:43:27.968Z</time>
      </trkpt>
      <trkpt lat="47.600757" lon="7.759977">
        <ele>446.464570</ele>
        <time>2021-11-07T13:44:02.440Z</time>
      </trkpt>
      <trkpt lat="47.601032" lon="7.760002">
        <ele>448.118779</ele>
        <time>2021-11-07T13:44:15.132Z</time>
      </trkpt>
      <trkpt lat="47.601336" lon="7.760030">
        <ele>449.947522</ele>
        <time>2021-11-07T13:44:28.044Z</time>
      </trkpt>
      <trkpt lat="47.601600" lon="7.760073">
        <ele>451.542117</ele>
        <time>2021-11-07T13:44:39.219Z</time>
      </trkpt>
      <trkpt lat="47.602078" lon="7.760047">
        <ele>454.413975</ele>
        <time>2021-11-07T13:44:57.606Z</time>
      </trkpt>
      <trkpt lat="47.602902" lon="7.759841">
        <ele>457.785919</ele>
        <time>2021-11-07T13:45:25.428Z</time>
      </trkpt>
      <trkpt lat="47.603173" lon="7.759766">
        <ele>458.228032</ele>
        <time>2021-11-07T13:45:31.965Z</time>
      </trkpt>
      <trkpt lat="47.603613" lon="7.759659">
        <ele>458.943095</ele>
        <time>2021-11-07T13:45:40.919Z</time>
      </trkpt>
      <trkpt lat="47.604088" lon="7.759601">
        <ele>459.707443</ele>
        <time>2021-11-07T13:45:48.210Z</time>
      </trkpt>
      <trkpt lat="47.604421" lon="7.759606">
        <ele>460.009896</ele>
        <time>2021-11-07T13:45:52.435Z</time>
      </trkpt>
      <trkpt lat="47.604633" lon="7.759635">
        <ele>459.887931</ele>
        <time>2021-11-07T13:45:54.953Z</time>
      </trkpt>
      <trkpt lat="47.605325" lon="7.759787">
        <ele>459.487180</ele>
        <time>2021-11-07T13:46:03.494Z</time>
      </trkpt>
      <trkpt lat="47.605536" lon="7.759853">
        <ele>459.363645</ele>
        <time>2021-11-07T13:46:06.251Z</time>
      </trkpt>
      <trkpt lat="47.606171" lon="7.760045">
        <ele>459.016417</ele>
        <time>2021-11-07T13:46:15.436Z</time>
      </trkpt>
      <trkpt lat="47.607246" lon="7.760369">
        <ele>458.702084</ele>
        <time>2021-11-07T13:46:32.709Z</time>
      </trkpt>
      <trkpt lat="47.607825" lon="7.760537">
        <ele>458.533029</ele>
        <time>2021-11-07T13:46:40.487Z</time>
      </trkpt>
      <trkpt lat="47.608938" lon="7.760829">
        <ele>456.391442</ele>
        <time>2021-11-07T13:46:52.979Z</time>
      </trkpt>
      <trkpt lat="47.610076" lon="7.761100">
        <ele>454.412433</ele>
        <time>2021-11-07T13:47:05.214Z</time>
      </trkpt>
      <trkpt lat="47.610488" lon="7.761190">
        <ele>453.835998</ele>
        <time>2021-11-07T13:47:09.946Z</time>
      </trkpt>
      <trkpt lat="47.610565" lon="7.761273">
        <ele>453.704245</ele>
        <time>2021-11-07T13:47:11.104Z</time>
      </trkpt>
      <trkpt lat="47.610601" lon="7.761374">
        <ele>453.597633</ele>
        <time>2021-11-07T13:47:12.001Z</time>
      </trkpt>
      <trkpt lat="47.610760" lon="7.761304">
        <ele>453.368059</ele>
        <time>2021-11-07T13:47:13.980Z</time>
      </trkpt>
      <trkpt lat="47.610854" lon="7.761285">
        <ele>453.236743</ele>
        <time>2021-11-07T13:47:15.191Z</time>
      </trkpt>
      <trkpt lat="47.611933" lon="7.761457">
        <ele>452.245119</ele>
        <time>2021-11-07T13:47:29.802Z</time>
      </trkpt>
      <trkpt lat="47.612022" lon="7.761449">
        <ele>452.198542</ele>
        <time>2021-11-07T13:47:31.077Z</time>
      </trkpt>
      <trkpt lat="47.612075" lon="7.761435">
        <ele>452.170421</ele>
        <time>2021-11-07T13:47:31.812Z</time>
      </trkpt>
      <trkpt lat="47.612127" lon="7.761383">
        <ele>452.137661</ele>
        <time>2021-11-07T13:47:32.694Z</time>
      </trkpt>
      <trkpt lat="47.612441" lon="7.760890">
        <ele>451.898819</ele>
        <time>2021-11-07T13:47:38.579Z</time>
      </trkpt>
      <trkpt lat="47.612523" lon="7.760811">
        <ele>451.847743</ele>
        <time>2021-11-07T13:47:39.965Z</time>
      </trkpt>
      <trkpt lat="47.612630" lon="7.760759">
        <ele>451.788925</ele>
        <time>2021-11-07T13:47:41.515Z</time>
      </trkpt>
      <trkpt lat="47.612812" lon="7.760726">
        <ele>451.693146</ele>
        <time>2021-11-07T13:47:43.819Z</time>
      </trkpt>
      <trkpt lat="47.612960" lon="7.760706">
        <ele>451.615514</ele>
        <time>2021-11-07T13:47:45.964Z</time>
      </trkpt>
      <trkpt lat="47.613059" lon="7.760674">
        <ele>451.487186</ele>
        <time>2021-11-07T13:47:47.332Z</time>
      </trkpt>
      <trkpt lat="47.613078" lon="7.760746">
        <ele>451.420783</ele>
        <time>2021-11-07T13:47:47.903Z</time>
      </trkpt>
      <trkpt lat="47.613167" lon="7.760835">
        <ele>451.284046</ele>
        <time>2021-11-07T13:47:49.480Z</time>
      </trkpt>
      <trkpt lat="47.613657" lon="7.760988">
        <ele>450.646140</ele>
        <time>2021-11-07T13:47:55.502Z</time>
      </trkpt>
      <trkpt lat="47.613842" lon="7.761046">
        <ele>450.405256</ele>
        <time>2021-11-07T13:47:57.615Z</time>
      </trkpt>
      <trkpt lat="47.614092" lon="7.761125">
        <ele>450.079627</ele>
        <time>2021-11-07T13:48:00.547Z</time>
      </trkpt>
      <trkpt lat="47.614228" lon="7.761168">
        <ele>449.902480</ele>
        <time>2021-11-07T13:48:02.018Z</time>
      </trkpt>
      <trkpt lat="47.614392" lon="7.761173">
        <ele>449.693511</ele>
        <time>2021-11-07T13:48:03.805Z</time>
      </trkpt>
      <trkpt lat="47.614706" lon="7.761147">
        <ele>449.317878</ele>
        <time>2021-11-07T13:48:07.316Z</time>
      </trkpt>
      <trkpt lat="47.614766" lon="7.761162">
        <ele>449.303358</ele>
        <time>2021-11-07T13:48:08.073Z</time>
      </trkpt>
      <trkpt lat="47.614820" lon="7.761190">
        <ele>449.289708</ele>
        <time>2021-11-07T13:48:08.873Z</time>
      </trkpt>
      <trkpt lat="47.615007" lon="7.761358">
        <ele>449.237539</ele>
        <time>2021-11-07T13:48:11.397Z</time>
      </trkpt>
      <trkpt lat="47.615529" lon="7.761749">
        <ele>449.097995</ele>
        <time>2021-11-07T13:48:19.783Z</time>
      </trkpt>
      <trkpt lat="47.615620" lon="7.761773">
        <ele>449.075939</ele>
        <time>2021-11-07T13:48:20.801Z</time>
      </trkpt>
      <trkpt lat="47.615769" lon="7.761789">
        <ele>449.040290</ele>
        <time>2021-11-07T13:48:23.300Z</time>
      </trkpt>
      <trkpt lat="47.615919" lon="7.761819">
        <ele>449.004171</ele>
        <time>2021-11-07T13:48:25.822Z</time>
      </trkpt>
      <trkpt lat="47.616849" lon="7.762442">
        <ele>449.183139</ele>
        <time>2021-11-07T13:48:44.009Z</time>
      </trkpt>
      <trkpt lat="47.617386" lon="7.762826">
        <ele>449.490173</ele>
        <time>2021-11-07T13:48:54.756Z</time>
      </trkpt>
      <trkpt lat="47.617553" lon="7.762928">
        <ele>449.583191</ele>
        <time>2021-11-07T13:48:57.585Z</time>
      </trkpt>
      <trkpt lat="47.617894" lon="7.763136">
        <ele>449.773088</ele>
        <time>2021-11-07T13:49:03.505Z</time>
      </trkpt>
      <trkpt lat="47.617858" lon="7.763622">
        <ele>449.597070</ele>
        <time>2021-11-07T13:49:08.255Z</time>
      </trkpt>
      <trkpt lat="47.617849" lon="7.763863">
        <ele>449.443406</ele>
        <time>2021-11-07T13:49:10.757Z</time>
      </trkpt>
      <trkpt lat="47.617934" lon="7.764271">
        <ele>449.171537</ele>
        <time>2021-11-07T13:49:14.770Z</time>
      </trkpt>
      <trkpt lat="47.618136" lon="7.764529">
        <ele>448.919792</ele>
        <time>2021-11-07T13:49:18.110Z</time>
      </trkpt>
      <trkpt lat="47.618356" lon="7.764125">
        <ele>448.589150</ele>
        <time>2021-11-07T13:49:22.284Z</time>
      </trkpt>
      <trkpt lat="47.618514" lon="7.763900">
        <ele>448.382303</ele>
        <time>2021-11-07T13:49:24.747Z</time>
      </trkpt>
      <trkpt lat="47.618753" lon="7.763750">
        <ele>448.137209</ele>
        <time>2021-11-07T13:49:27.588Z</time>
      </trkpt>
      <trkpt lat="47.619022" lon="7.763758">
        <ele>447.401431</ele>
        <time>2021-11-07T13:49:30.470Z</time>
      </trkpt>
      <trkpt lat="47.619329" lon="7.764008">
        <ele>446.404010</ele>
        <time>2021-11-07T13:49:34.170Z</time>
      </trkpt>
      <trkpt lat="47.619502" lon="7.764194">
        <ele>445.795509</ele>
        <time>2021-11-07T13:49:36.486Z</time>
      </trkpt>
      <trkpt lat="47.619627" lon="7.764641">
        <ele>444.866463</ele>
        <time>2021-11-07T13:49:39.905Z</time>
      </trkpt>
      <trkpt lat="47.619705" lon="7.765107">
        <ele>443.944692</ele>
        <time>2021-11-07T13:49:43.190Z</time>
      </trkpt>
      <trkpt lat="47.619832" lon="7.765722">
        <ele>442.586164</ele>
        <time>2021-11-07T13:49:47.466Z</time>
      </trkpt>
      <trkpt lat="47.620092" lon="7.767207">
        <ele>438.382011</ele>
        <time>2021-11-07T13:49:57.399Z</time>
      </trkpt>
      <trkpt lat="47.620307" lon="7.767734">
        <ele>436.694052</ele>
        <time>2021-11-07T13:50:01.420Z</time>
      </trkpt>
      <trkpt lat="47.620543" lon="7.768057">
        <ele>435.448832</ele>
        <time>2021-11-07T13:50:04.590Z</time>
      </trkpt>
      <trkpt lat="47.621839" lon="7.768898">
        <ele>430.854620</ele>
        <time>2021-11-07T13:50:18.801Z</time>
      </trkpt>
      <trkpt lat="47.622371" lon="7.769061">
        <ele>429.415480</ele>
        <time>2021-11-07T13:50:24.558Z</time>
      </trkpt>
      <trkpt lat="47.623349" lon="7.769241">
        <ele>427.592362</ele>
        <time>2021-11-07T13:50:35.314Z</time>
      </trkpt>
      <trkpt lat="47.624248" lon="7.769501">
        <ele>426.164565</ele>
        <time>2021-11-07T13:50:46.449Z</time>
      </trkpt>
      <trkpt lat="47.624603" lon="7.769604">
        <ele>425.782939</ele>
        <time>2021-11-07T13:50:50.956Z</time>
      </trkpt>
      <trkpt lat="47.624769" lon="7.769638">
        <ele>425.606144</ele>
        <time>2021-11-07T13:50:53.094Z</time>
      </trkpt>
      <trkpt lat="47.625096" lon="7.769705">
        <ele>425.257879</ele>
        <time>2021-11-07T13:50:57.129Z</time>
      </trkpt>
      <trkpt lat="47.625380" lon="7.769739">
        <ele>424.957279</ele>
        <time>2021-11-07T13:51:00.564Z</time>
      </trkpt>
      <trkpt lat="47.625663" lon="7.769773">
        <ele>424.657732</ele>
        <time>2021-11-07T13:51:03.876Z</time>
      </trkpt>
      <trkpt lat="47.626274" lon="7.769785">
        <ele>423.388018</ele>
        <time>2021-11-07T13:51:11.083Z</time>
      </trkpt>
      <trkpt lat="47.626675" lon="7.769973">
        <ele>422.488030</ele>
        <time>2021-11-07T13:51:15.755Z</time>
      </trkpt>
      <trkpt lat="47.627069" lon="7.770397">
        <ele>421.446421</ele>
        <time>2021-11-07T13:51:20.735Z</time>
      </trkpt>
      <trkpt lat="47.627589" lon="7.771292">
        <ele>419.919940</ele>
        <time>2021-11-07T13:51:29.012Z</time>
      </trkpt>
      <trkpt lat="47.627790" lon="7.771752">
        <ele>419.265835</ele>
        <time>2021-11-07T13:51:32.923Z</time>
      </trkpt>
      <trkpt lat="47.627843" lon="7.771878">
        <ele>419.088622</ele>
        <time>2021-11-07T13:51:33.942Z</time>
      </trkpt>
      <trkpt lat="47.628071" lon="7.772437">
        <ele>418.309030</ele>
        <time>2021-11-07T13:51:38.844Z</time>
      </trkpt>
      <trkpt lat="47.628459" lon="7.773585">
        <ele>417.780734</ele>
        <time>2021-11-07T13:51:51.627Z</time>
      </trkpt>
      <trkpt lat="47.628757" lon="7.774190">
        <ele>417.994087</ele>
        <time>2021-11-07T13:52:01.518Z</time>
      </trkpt>
      <trkpt lat="47.628835" lon="7.774386">
        <ele>418.058893</ele>
        <time>2021-11-07T13:52:04.123Z</time>
      </trkpt>
      <trkpt lat="47.628913" lon="7.774584">
        <ele>418.124191</ele>
        <time>2021-11-07T13:52:08.014Z</time>
      </trkpt>
      <trkpt lat="47.629477" lon="7.776561">
        <ele>416.324650</ele>
        <time>2021-11-07T13:52:28.818Z</time>
      </trkpt>
      <trkpt lat="47.629739" lon="7.777102">
        <ele>415.336581</ele>
        <time>2021-11-07T13:52:33.275Z</time>
      </trkpt>
      <trkpt lat="47.630120" lon="7.777463">
        <ele>414.263327</ele>
        <time>2021-11-07T13:52:37.588Z</time>
      </trkpt>
      <trkpt lat="47.630423" lon="7.777640">
        <ele>412.352477</ele>
        <time>2021-11-07T13:52:40.619Z</time>
      </trkpt>
      <trkpt lat="47.631619" lon="7.778161">
        <ele>405.038063</ele>
        <time>2021-11-07T13:52:52.018Z</time>
      </trkpt>
      <trkpt lat="47.631946" lon="7.778226">
        <ele>403.057520</ele>
        <time>2021-11-07T13:52:55.024Z</time>
      </trkpt>
      <trkpt lat="47.632866" lon="7.778126">
        <ele>397.315116</ele>
        <time>2021-11-07T13:53:03.454Z</time>
      </trkpt>
      <trkpt lat="47.633379" lon="7.777778">
        <ele>393.803807</ele>
        <time>2021-11-07T13:53:08.608Z</time>
      </trkpt>
      <trkpt lat="47.633928" lon="7.777200">
        <ele>389.543594</ele>
        <time>2021-11-07T13:53:14.746Z</time>
      </trkpt>
      <trkpt lat="47.634334" lon="7.777067">
        <ele>386.895530</ele>
        <time>2021-11-07T13:53:18.512Z</time>
      </trkpt>
      <trkpt lat="47.635865" lon="7.777362">
        <ele>377.485624</ele>
        <time>2021-11-07T13:53:32.573Z</time>
      </trkpt>
      <trkpt lat="47.636624" lon="7.777638">
        <ele>373.019492</ele>
        <time>2021-11-07T13:53:39.883Z</time>
      </trkpt>
      <trkpt lat="47.637701" lon="7.777589">
        <ele>366.712514</ele>
        <time>2021-11-07T13:53:49.880Z</time>
      </trkpt>
      <trkpt lat="47.638130" lon="7.777591">
        <ele>364.170381</ele>
        <time>2021-11-07T13:53:53.774Z</time>
      </trkpt>
      <trkpt lat="47.638523" lon="7.777631">
        <ele>361.836116</ele>
        <time>2021-11-07T13:53:57.365Z</time>
      </trkpt>
      <trkpt lat="47.638601" lon="7.777645">
        <ele>361.370544</ele>
        <time>2021-11-07T13:53:58.073Z</time>
      </trkpt>
      <trkpt lat="47.638857" lon="7.777693">
        <ele>359.956020</ele>
        <time>2021-11-07T13:54:00.467Z</time>
      </trkpt>
      <trkpt lat="47.639092" lon="7.777737">
        <ele>358.951563</ele>
        <time>2021-11-07T13:54:02.661Z</time>
      </trkpt>
      <trkpt lat="47.639551" lon="7.777821">
        <ele>356.990351</ele>
        <time>2021-11-07T13:54:06.967Z</time>
      </trkpt>
      <trkpt lat="47.639581" lon="7.777832">
        <ele>356.859306</ele>
        <time>2021-11-07T13:54:07.253Z</time>
      </trkpt>
      <trkpt lat="47.639647" lon="7.777857">
        <ele>356.570449</ele>
        <time>2021-11-07T13:54:07.894Z</time>
      </trkpt>
      <trkpt lat="47.639952" lon="7.778026">
        <ele>355.189842</ele>
        <time>2021-11-07T13:54:11.029Z</time>
      </trkpt>
      <trkpt lat="47.640214" lon="7.778094">
        <ele>354.061924</ele>
        <time>2021-11-07T13:54:13.699Z</time>
      </trkpt>
      <trkpt lat="47.640434" lon="7.778080">
        <ele>353.128119</ele>
        <time>2021-11-07T13:54:15.988Z</time>
      </trkpt>
      <trkpt lat="47.640603" lon="7.778070">
        <ele>352.594166</ele>
        <time>2021-11-07T13:54:17.777Z</time>
      </trkpt>
      <trkpt lat="47.640774" lon="7.778034">
        <ele>352.513821</ele>
        <time>2021-11-07T13:54:19.762Z</time>
      </trkpt>
      <trkpt lat="47.640847" lon="7.778085">
        <ele>352.476287</ele>
        <time>2021-11-07T13:54:20.703Z</time>
      </trkpt>
      <trkpt lat="47.641101" lon="7.778647">
        <ele>352.264174</ele>
        <time>2021-11-07T13:54:26.886Z</time>
      </trkpt>
      <trkpt lat="47.641101" lon="7.778647">
        <ele>352.264174</ele>
        <time>2021-11-07T13:54:26.890Z</time>
      </trkpt>
      <trkpt lat="47.641206" lon="7.778877">
        <ele>352.177093</ele>
        <time>2021-11-07T13:54:29.701Z</time>
      </trkpt>
      <trkpt lat="47.641301" lon="7.779088">
        <ele>352.097551</ele>
        <time>2021-11-07T13:54:32.354Z</time>
      </trkpt>
      <trkpt lat="47.641383" lon="7.779295">
        <ele>352.022286</ele>
        <time>2021-11-07T13:54:34.809Z</time>
      </trkpt>
      <trkpt lat="47.641504" lon="7.779524">
        <ele>351.931070</ele>
        <time>2021-11-07T13:54:37.990Z</time>
      </trkpt>
      <trkpt lat="47.641406" lon="7.779804">
        <ele>351.832173</ele>
        <time>2021-11-07T13:54:41.399Z</time>
      </trkpt>
      <trkpt lat="47.641394" lon="7.780042">
        <ele>351.807541</ele>
        <time>2021-11-07T13:54:44.063Z</time>
      </trkpt>
      <trkpt lat="47.641373" lon="7.780707">
        <ele>352.060995</ele>
        <time>2021-11-07T13:54:51.878Z</time>
      </trkpt>
      <trkpt lat="47.641405" lon="7.780976">
        <ele>352.164992</ele>
        <time>2021-11-07T13:54:55.136Z</time>
      </trkpt>
      <trkpt lat="47.641524" lon="7.781291">
        <ele>352.302482</ele>
        <time>2021-11-07T13:54:59.478Z</time>
      </trkpt>
      <trkpt lat="47.641643" lon="7.781693">
        <ele>352.469649</ele>
        <time>2021-11-07T13:55:04.794Z</time>
      </trkpt>
      <trkpt lat="47.641869" lon="7.782962">
        <ele>352.906554</ele>
        <time>2021-11-07T13:55:19.305Z</time>
      </trkpt>
      <trkpt lat="47.641988" lon="7.783768">
        <ele>353.106640</ele>
        <time>2021-11-07T13:55:28.595Z</time>
      </trkpt>
      <trkpt lat="47.642070" lon="7.784597">
        <ele>353.309821</ele>
        <time>2021-11-07T13:55:37.534Z</time>
      </trkpt>
      <trkpt lat="47.642098" lon="7.784929">
        <ele>353.390956</ele>
        <time>2021-11-07T13:55:41.236Z</time>
      </trkpt>
      <trkpt lat="47.642092" lon="7.785566">
        <ele>353.574171</ele>
        <time>2021-11-07T13:55:48.039Z</time>
      </trkpt>
      <trkpt lat="47.642187" lon="7.787574">
        <ele>354.200147</ele>
        <time>2021-11-07T13:56:10.503Z</time>
      </trkpt>
      <trkpt lat="47.642177" lon="7.788598">
        <ele>354.707252</ele>
        <time>2021-11-07T13:56:22.860Z</time>
      </trkpt>
      <trkpt lat="47.642173" lon="7.788815">
        <ele>354.826787</ele>
        <time>2021-11-07T13:56:25.506Z</time>
      </trkpt>
      <trkpt lat="47.642213" lon="7.789443">
        <ele>355.174137</ele>
        <time>2021-11-07T13:56:33.244Z</time>
      </trkpt>
      <trkpt lat="47.642253" lon="7.789870">
        <ele>355.411525</ele>
        <time>2021-11-07T13:56:38.580Z</time>
      </trkpt>
      <trkpt lat="47.642283" lon="7.790364">
        <ele>355.684648</ele>
        <time>2021-11-07T13:56:44.722Z</time>
      </trkpt>
      <trkpt lat="47.642317" lon="7.790714">
        <ele>355.900437</ele>
        <time>2021-11-07T13:56:49.129Z</time>
      </trkpt>
      <trkpt lat="47.642371" lon="7.791259">
        <ele>356.250929</ele>
        <time>2021-11-07T13:56:55.900Z</time>
      </trkpt>
      <trkpt lat="47.642494" lon="7.791876">
        <ele>356.660326</ele>
        <time>2021-11-07T13:57:03.869Z</time>
      </trkpt>
      <trkpt lat="47.642510" lon="7.792488">
        <ele>357.050011</ele>
        <time>2021-11-07T13:57:11.454Z</time>
      </trkpt>
      <trkpt lat="47.642430" lon="7.792992">
        <ele>357.379465</ele>
        <time>2021-11-07T13:57:18.328Z</time>
      </trkpt>
      <trkpt lat="47.642238" lon="7.793563">
        <ele>357.847926</ele>
        <time>2021-11-07T13:57:26.518Z</time>
      </trkpt>
      <trkpt lat="47.641976" lon="7.793963">
        <ele>358.267458</ele>
        <time>2021-11-07T13:57:33.647Z</time>
      </trkpt>
      <trkpt lat="47.641723" lon="7.794173">
        <ele>358.591009</ele>
        <time>2021-11-07T13:57:39.142Z</time>
      </trkpt>
      <trkpt lat="47.641467" lon="7.794243">
        <ele>358.881557</ele>
        <time>2021-11-07T13:57:43.701Z</time>
      </trkpt>
      <trkpt lat="47.641423" lon="7.794262">
        <ele>358.932705</ele>
        <time>2021-11-07T13:57:44.872Z</time>
      </trkpt>
      <trkpt lat="47.641376" lon="7.794282">
        <ele>358.987279</ele>
        <time>2021-11-07T13:57:45.780Z</time>
      </trkpt>
      <trkpt lat="47.641301" lon="7.794362">
        <ele>359.090368</ele>
        <time>2021-11-07T13:57:47.474Z</time>
      </trkpt>
      <trkpt lat="47.641279" lon="7.794622">
        <ele>359.287435</ele>
        <time>2021-11-07T13:57:50.719Z</time>
      </trkpt>
      <trkpt lat="47.641343" lon="7.796245">
        <ele>360.992070</ele>
        <time>2021-11-07T13:58:13.951Z</time>
      </trkpt>
      <trkpt lat="47.641315" lon="7.796644">
        <ele>361.430924</ele>
        <time>2021-11-07T13:58:19.868Z</time>
      </trkpt>
      <trkpt lat="47.641227" lon="7.796936">
        <ele>361.780862</ele>
        <time>2021-11-07T13:58:24.538Z</time>
      </trkpt>
      <trkpt lat="47.641176" lon="7.797112">
        <ele>361.990452</ele>
        <time>2021-11-07T13:58:27.307Z</time>
      </trkpt>
      <trkpt lat="47.641074" lon="7.797586">
        <ele>362.564677</ele>
        <time>2021-11-07T13:58:34.696Z</time>
      </trkpt>
      <trkpt lat="47.641015" lon="7.798103">
        <ele>363.242553</ele>
        <time>2021-11-07T13:58:42.661Z</time>
      </trkpt>
      <trkpt lat="47.640997" lon="7.798555">
        <ele>363.827901</ele>
        <time>2021-11-07T13:58:49.719Z</time>
      </trkpt>
      <trkpt lat="47.640999" lon="7.798974">
        <ele>364.369582</ele>
        <time>2021-11-07T13:58:56.340Z</time>
      </trkpt>
      <trkpt lat="47.641092" lon="7.800157">
        <ele>365.909069</ele>
        <time>2021-11-07T13:59:13.916Z</time>
      </trkpt>
      <trkpt lat="47.641116" lon="7.802670">
        <ele>369.149828</ele>
        <time>2021-11-07T13:59:51.312Z</time>
      </trkpt>
      <trkpt lat="47.641035" lon="7.804052">
        <ele>372.129172</ele>
        <time>2021-11-07T14:00:15.361Z</time>
      </trkpt>
      <trkpt lat="47.641027" lon="7.805216">
        <ele>374.697137</ele>
        <time>2021-11-07T14:00:38.813Z</time>
      </trkpt>
      <trkpt lat="47.640903" lon="7.805965">
        <ele>376.925199</ele>
        <time>2021-11-07T14:00:55.637Z</time>
      </trkpt>
      <trkpt lat="47.640471" lon="7.807411">
        <ele>381.889520</ele>
        <time>2021-11-07T14:01:31.387Z</time>
      </trkpt>
      <trkpt lat="47.640248" lon="7.809244">
        <ele>388.744444</ele>
        <time>2021-11-07T14:02:15.602Z</time>
      </trkpt>
      <trkpt lat="47.640177" lon="7.809453">
        <ele>389.655342</ele>
        <time>2021-11-07T14:02:22.156Z</time>
      </trkpt>
      <trkpt lat="47.640144" lon="7.809624">
        <ele>390.347581</ele>
        <time>2021-11-07T14:02:27.469Z</time>
      </trkpt>
      <trkpt lat="47.640133" lon="7.809898">
        <ele>391.415800</ele>
        <time>2021-11-07T14:02:33.934Z</time>
      </trkpt>
      <trkpt lat="47.640212" lon="7.810393">
        <ele>393.395496</ele>
        <time>2021-11-07T14:02:47.507Z</time>
      </trkpt>
      <trkpt lat="47.640234" lon="7.810482">
        <ele>393.764430</ele>
        <time>2021-11-07T14:02:50.643Z</time>
      </trkpt>
      <trkpt lat="47.640321" lon="7.810756">
        <ele>395.213555</ele>
        <time>2021-11-07T14:02:59.418Z</time>
      </trkpt>
      <trkpt lat="47.640486" lon="7.811243">
        <ele>397.895133</ele>
        <time>2021-11-07T14:03:14.666Z</time>
      </trkpt>
      <trkpt lat="47.640504" lon="7.811478">
        <ele>399.058633</ele>
        <time>2021-11-07T14:03:21.345Z</time>
      </trkpt>
      <trkpt lat="47.640454" lon="7.811607">
        <ele>399.790742</ele>
        <time>2021-11-07T14:03:26.079Z</time>
      </trkpt>
      <trkpt lat="47.640351" lon="7.811609">
        <ele>400.542826</ele>
        <time>2021-11-07T14:03:29.866Z</time>
      </trkpt>
      <trkpt lat="47.640054" lon="7.811297">
        <ele>403.199503</ele>
        <time>2021-11-07T14:03:45.849Z</time>
      </trkpt>
      <trkpt lat="47.639963" lon="7.811344">
        <ele>403.902990</ele>
        <time>2021-11-07T14:03:50.280Z</time>
      </trkpt>
      <trkpt lat="47.639913" lon="7.811500">
        <ele>404.752824</ele>
        <time>2021-11-07T14:03:56.311Z</time>
      </trkpt>
      <trkpt lat="47.639796" lon="7.811469">
        <ele>405.620566</ele>
        <time>2021-11-07T14:04:02.219Z</time>
      </trkpt>
      <trkpt lat="47.639195" lon="7.811442">
        <ele>410.350669</ele>
        <time>2021-11-07T14:04:30.712Z</time>
      </trkpt>
      <trkpt lat="47.638925" lon="7.811482">
        <ele>412.559492</ele>
        <time>2021-11-07T14:04:43.390Z</time>
      </trkpt>
      <trkpt lat="47.638511" lon="7.811552">
        <ele>415.951405</ele>
        <time>2021-11-07T14:05:03.317Z</time>
      </trkpt>
      <trkpt lat="47.637893" lon="7.811811">
        <ele>421.178892</ele>
        <time>2021-11-07T14:05:32.747Z</time>
      </trkpt>
      <trkpt lat="47.637370" lon="7.812117">
        <ele>425.528370</ele>
        <time>2021-11-07T14:06:01.469Z</time>
      </trkpt>
      <trkpt lat="47.637056" lon="7.812257">
        <ele>428.048253</ele>
        <time>2021-11-07T14:06:16.602Z</time>
      </trkpt>
      <trkpt lat="47.636514" lon="7.812384">
        <ele>432.265532</ele>
        <time>2021-11-07T14:06:40.543Z</time>
      </trkpt>
      <trkpt lat="47.636362" lon="7.812419">
        <ele>433.447744</ele>
        <time>2021-11-07T14:06:47.708Z</time>
      </trkpt>
      <trkpt lat="47.636234" lon="7.812469">
        <ele>434.465028</ele>
        <time>2021-11-07T14:06:53.010Z</time>
      </trkpt>
      <trkpt lat="47.635984" lon="7.812598">
        <ele>436.492514</ele>
        <time>2021-11-07T14:07:03.982Z</time>
      </trkpt>
      <trkpt lat="47.635678" lon="7.812872">
        <ele>439.220321</ele>
        <time>2021-11-07T14:07:19.499Z</time>
      </trkpt>
      <trkpt lat="47.635617" lon="7.812948">
        <ele>439.828240</ele>
        <time>2021-11-07T14:07:22.765Z</time>
      </trkpt>
      <trkpt lat="47.635537" lon="7.813043">
        <ele>440.610278</ele>
        <time>2021-11-07T14:07:27.885Z</time>
      </trkpt>
      <trkpt lat="47.635461" lon="7.813093">
        <ele>441.244806</ele>
        <time>2021-11-07T14:07:31.652Z</time>
      </trkpt>
      <trkpt lat="47.635241" lon="7.813237">
        <ele>443.080068</ele>
        <time>2021-11-07T14:07:42.326Z</time>
      </trkpt>
      <trkpt lat="47.634810" lon="7.813677">
        <ele>447.072973</ele>
        <time>2021-11-07T14:08:07.536Z</time>
      </trkpt>
      <trkpt lat="47.634638" lon="7.813802">
        <ele>448.534761</ele>
        <time>2021-11-07T14:08:15.770Z</time>
      </trkpt>
      <trkpt lat="47.634603" lon="7.813838">
        <ele>448.859798</ele>
        <time>2021-11-07T14:08:18.904Z</time>
      </trkpt>
      <trkpt lat="47.634267" lon="7.814103">
        <ele>451.873597</ele>
        <time>2021-11-07T14:08:36.254Z</time>
      </trkpt>
      <trkpt lat="47.634025" lon="7.814248">
        <ele>453.952216</ele>
        <time>2021-11-07T14:08:47.023Z</time>
      </trkpt>
      <trkpt lat="47.633899" lon="7.814255">
        <ele>454.956462</ele>
        <time>2021-11-07T14:08:53.570Z</time>
      </trkpt>
      <trkpt lat="47.633759" lon="7.814194">
        <ele>456.118580</ele>
        <time>2021-11-07T14:08:59.358Z</time>
      </trkpt>
      <trkpt lat="47.633391" lon="7.813533">
        <ele>460.720385</ele>
        <time>2021-11-07T14:09:29.738Z</time>
      </trkpt>
      <trkpt lat="47.633151" lon="7.812590">
        <ele>465.840147</ele>
        <time>2021-11-07T14:09:59.526Z</time>
      </trkpt>
      <trkpt lat="47.632938" lon="7.812283">
        <ele>467.936754</ele>
        <time>2021-11-07T14:10:11.054Z</time>
      </trkpt>
      <trkpt lat="47.632845" lon="7.812246">
        <ele>468.616609</ele>
        <time>2021-11-07T14:10:16.723Z</time>
      </trkpt>
      <trkpt lat="47.632790" lon="7.812277">
        <ele>469.032028</ele>
        <time>2021-11-07T14:10:19.122Z</time>
      </trkpt>
      <trkpt lat="47.632601" lon="7.813004">
        <ele>472.739740</ele>
        <time>2021-11-07T14:10:39.567Z</time>
      </trkpt>
      <trkpt lat="47.632573" lon="7.813067">
        <ele>473.098833</ele>
        <time>2021-11-07T14:10:42.462Z</time>
      </trkpt>
      <trkpt lat="47.632515" lon="7.813155">
        <ele>473.684535</ele>
        <time>2021-11-07T14:10:47.133Z</time>
      </trkpt>
      <trkpt lat="47.632179" lon="7.813790">
        <ele>477.685315</ele>
        <time>2021-11-07T14:11:08.185Z</time>
      </trkpt>
      <trkpt lat="47.632099" lon="7.813963">
        <ele>478.810299</ele>
        <time>2021-11-07T14:11:15.768Z</time>
      </trkpt>
      <trkpt lat="47.631707" lon="7.814641">
        <ele>483.600232</ele>
        <time>2021-11-07T14:11:42.651Z</time>
      </trkpt>
      <trkpt lat="47.631677" lon="7.814692">
        <ele>483.963210</ele>
        <time>2021-11-07T14:11:45.729Z</time>
      </trkpt>
      <trkpt lat="47.631227" lon="7.815205">
        <ele>488.478247</ele>
        <time>2021-11-07T14:12:12.972Z</time>
      </trkpt>
      <trkpt lat="47.631083" lon="7.815420">
        <ele>490.103575</ele>
        <time>2021-11-07T14:12:23.180Z</time>
      </trkpt>
      <trkpt lat="47.631021" lon="7.815514">
        <ele>490.804084</ele>
        <time>2021-11-07T14:12:27.441Z</time>
      </trkpt>
      <trkpt lat="47.630743" lon="7.815987">
        <ele>494.098843</ele>
        <time>2021-11-07T14:12:47.774Z</time>
      </trkpt>
      <trkpt lat="47.629850" lon="7.816905">
        <ele>502.561457</ele>
        <time>2021-11-07T14:13:41.350Z</time>
      </trkpt>
      <trkpt lat="47.629046" lon="7.818276">
        <ele>508.114691</ele>
        <time>2021-11-07T14:14:23.884Z</time>
      </trkpt>
      <trkpt lat="47.628903" lon="7.818442">
        <ele>508.777934</ele>
        <time>2021-11-07T14:14:28.890Z</time>
      </trkpt>
      <trkpt lat="47.628652" lon="7.819012">
        <ele>510.454203</ele>
        <time>2021-11-07T14:14:39.115Z</time>
      </trkpt>
      <trkpt lat="47.628382" lon="7.819690">
        <ele>510.835468</ele>
        <time>2021-11-07T14:14:49.169Z</time>
      </trkpt>
      <trkpt lat="47.628223" lon="7.820316">
        <ele>510.395415</ele>
        <time>2021-11-07T14:14:55.275Z</time>
      </trkpt>
      <trkpt lat="47.628068" lon="7.820705">
        <ele>510.098154</ele>
        <time>2021-11-07T14:14:58.669Z</time>
      </trkpt>
      <trkpt lat="47.627725" lon="7.821287">
        <ele>509.589581</ele>
        <time>2021-11-07T14:15:04.333Z</time>
      </trkpt>
      <trkpt lat="47.627644" lon="7.821437">
        <ele>509.463144</ele>
        <time>2021-11-07T14:15:05.729Z</time>
      </trkpt>
      <trkpt lat="47.627436" lon="7.821903">
        <ele>508.445621</ele>
        <time>2021-11-07T14:15:09.688Z</time>
      </trkpt>
      <trkpt lat="47.627230" lon="7.822262">
        <ele>507.491194</ele>
        <time>2021-11-07T14:15:12.980Z</time>
      </trkpt>
      <trkpt lat="47.626961" lon="7.822577">
        <ele>506.461932</ele>
        <time>2021-11-07T14:15:16.483Z</time>
      </trkpt>
      <trkpt lat="47.626214" lon="7.823154">
        <ele>503.936660</ele>
        <time>2021-11-07T14:15:24.902Z</time>
      </trkpt>
      <trkpt lat="47.626017" lon="7.823389">
        <ele>503.220821</ele>
        <time>2021-11-07T14:15:27.482Z</time>
      </trkpt>
      <trkpt lat="47.625432" lon="7.824606">
        <ele>500.367727</ele>
        <time>2021-11-07T14:15:38.041Z</time>
      </trkpt>
      <trkpt lat="47.624738" lon="7.825514">
        <ele>496.982345</ele>
        <time>2021-11-07T14:15:47.734Z</time>
      </trkpt>
      <trkpt lat="47.624085" lon="7.826125">
        <ele>493.360313</ele>
        <time>2021-11-07T14:15:55.066Z</time>
      </trkpt>
      <trkpt lat="47.623651" lon="7.826499">
        <ele>491.005572</ele>
        <time>2021-11-07T14:15:59.704Z</time>
      </trkpt>
      <trkpt lat="47.623357" lon="7.826769">
        <ele>488.998955</ele>
        <time>2021-11-07T14:16:02.850Z</time>
      </trkpt>
      <trkpt lat="47.622929" lon="7.827233">
        <ele>485.635112</ele>
        <time>2021-11-07T14:16:07.629Z</time>
      </trkpt>
      <trkpt lat="47.622611" lon="7.827681">
        <ele>482.852311</ele>
        <time>2021-11-07T14:16:11.547Z</time>
      </trkpt>
      <trkpt lat="47.621973" lon="7.828724">
        <ele>477.615953</ele>
        <time>2021-11-07T14:16:20.281Z</time>
      </trkpt>
      <trkpt lat="47.621800" lon="7.829109">
        <ele>476.335659</ele>
        <time>2021-11-07T14:16:23.299Z</time>
      </trkpt>
      <trkpt lat="47.621534" lon="7.829734">
        <ele>474.290427</ele>
        <time>2021-11-07T14:16:28.211Z</time>
      </trkpt>
      <trkpt lat="47.621427" lon="7.829933">
        <ele>473.586068</ele>
        <time>2021-11-07T14:16:29.939Z</time>
      </trkpt>
      <trkpt lat="47.621202" lon="7.830405">
        <ele>471.986452</ele>
        <time>2021-11-07T14:16:33.909Z</time>
      </trkpt>
      <trkpt lat="47.619543" lon="7.832548">
        <ele>465.378947</ele>
        <time>2021-11-07T14:16:56.754Z</time>
      </trkpt>
      <trkpt lat="47.618883" lon="7.833744">
        <ele>461.718154</ele>
        <time>2021-11-07T14:17:07.095Z</time>
      </trkpt>
      <trkpt lat="47.618582" lon="7.834417">
        <ele>459.781277</ele>
        <time>2021-11-07T14:17:12.434Z</time>
      </trkpt>
      <trkpt lat="47.618319" lon="7.834959">
        <ele>458.104150</ele>
        <time>2021-11-07T14:17:16.851Z</time>
      </trkpt>
      <trkpt lat="47.617841" lon="7.835706">
        <ele>455.517523</ele>
        <time>2021-11-07T14:17:23.662Z</time>
      </trkpt>
      <trkpt lat="47.617290" lon="7.837217">
        <ele>451.491656</ele>
        <time>2021-11-07T14:17:35.295Z</time>
      </trkpt>
      <trkpt lat="47.616796" lon="7.838812">
        <ele>447.636012</ele>
        <time>2021-11-07T14:17:47.333Z</time>
      </trkpt>
      <trkpt lat="47.616766" lon="7.839183">
        <ele>446.704589</ele>
        <time>2021-11-07T14:17:49.910Z</time>
      </trkpt>
      <trkpt lat="47.617103" lon="7.841209">
        <ele>441.502901</ele>
        <time>2021-11-07T14:18:03.836Z</time>
      </trkpt>
      <trkpt lat="47.617228" lon="7.842570">
        <ele>437.337358</ele>
        <time>2021-11-07T14:18:12.675Z</time>
      </trkpt>
      <trkpt lat="47.617368" lon="7.843216">
        <ele>435.215024</ele>
        <time>2021-11-07T14:18:16.954Z</time>
      </trkpt>
      <trkpt lat="47.617607" lon="7.843840">
        <ele>432.970311</ele>
        <time>2021-11-07T14:18:21.536Z</time>
      </trkpt>
      <trkpt lat="47.617988" lon="7.844483">
        <ele>431.056627</ele>
        <time>2021-11-07T14:18:27.150Z</time>
      </trkpt>
      <trkpt lat="47.618134" lon="7.844973">
        <ele>429.925245</ele>
        <time>2021-11-07T14:18:30.789Z</time>
      </trkpt>
      <trkpt lat="47.618223" lon="7.845325">
        <ele>429.131310</ele>
        <time>2021-11-07T14:18:33.429Z</time>
      </trkpt>
      <trkpt lat="47.618233" lon="7.846599">
        <ele>426.579560</ele>
        <time>2021-11-07T14:18:42.619Z</time>
      </trkpt>
      <trkpt lat="47.617998" lon="7.847811">
        <ele>424.566268</ele>
        <time>2021-11-07T14:18:52.196Z</time>
      </trkpt>
      <trkpt lat="47.617988" lon="7.848055">
        <ele>424.176026</ele>
        <time>2021-11-07T14:18:54.059Z</time>
      </trkpt>
      <trkpt lat="47.618004" lon="7.848291">
        <ele>423.797373</ele>
        <time>2021-11-07T14:18:55.747Z</time>
      </trkpt>
      <trkpt lat="47.618035" lon="7.849984">
        <ele>419.316766</ele>
        <time>2021-11-07T14:19:07.234Z</time>
      </trkpt>
      <trkpt lat="47.618006" lon="7.850183">
        <ele>418.643062</ele>
        <time>2021-11-07T14:19:08.540Z</time>
      </trkpt>
      <trkpt lat="47.617527" lon="7.851427">
        <ele>413.890208</ele>
        <time>2021-11-07T14:19:17.491Z</time>
      </trkpt>
      <trkpt lat="47.617505" lon="7.852663">
        <ele>407.046268</ele>
        <time>2021-11-07T14:19:24.834Z</time>
      </trkpt>
      <trkpt lat="47.617401" lon="7.852985">
        <ele>405.069884</ele>
        <time>2021-11-07T14:19:26.922Z</time>
      </trkpt>
      <trkpt lat="47.617174" lon="7.853374">
        <ele>402.221911</ele>
        <time>2021-11-07T14:19:29.938Z</time>
      </trkpt>
      <trkpt lat="47.617121" lon="7.853582">
        <ele>400.991061</ele>
        <time>2021-11-07T14:19:31.246Z</time>
      </trkpt>
      <trkpt lat="47.616902" lon="7.854158">
        <ele>397.704112</ele>
        <time>2021-11-07T14:19:35.150Z</time>
      </trkpt>
      <trkpt lat="47.616532" lon="7.854834">
        <ele>393.873308</ele>
        <time>2021-11-07T14:19:42.526Z</time>
      </trkpt>
      <trkpt lat="47.615834" lon="7.855623">
        <ele>388.146224</ele>
        <time>2021-11-07T14:19:53.993Z</time>
      </trkpt>
      <trkpt lat="47.615482" lon="7.855744">
        <ele>386.703414</ele>
        <time>2021-11-07T14:19:59.397Z</time>
      </trkpt>
      <trkpt lat="47.615230" lon="7.856082">
        <ele>385.735696</ele>
        <time>2021-11-07T14:20:05.061Z</time>
      </trkpt>
      <trkpt lat="47.615230" lon="7.856082">
        <ele>385.735696</ele>
        <time>2021-11-07T14:20:05.067Z</time>
      </trkpt>
      <trkpt lat="47.614943" lon="7.856422">
        <ele>384.689489</ele>
        <time>2021-11-07T14:20:09.132Z</time>
      </trkpt>
      <trkpt lat="47.614594" lon="7.857031">
        <ele>383.154644</ele>
        <time>2021-11-07T14:20:14.640Z</time>
      </trkpt>
      <trkpt lat="47.614324" lon="7.857633">
        <ele>381.722242</ele>
        <time>2021-11-07T14:20:19.679Z</time>
      </trkpt>
      <trkpt lat="47.614117" lon="7.858260">
        <ele>380.268869</ele>
        <time>2021-11-07T14:20:24.593Z</time>
      </trkpt>
      <trkpt lat="47.614070" lon="7.858577">
        <ele>379.593184</ele>
        <time>2021-11-07T14:20:26.824Z</time>
      </trkpt>
      <trkpt lat="47.613930" lon="7.859518">
        <ele>377.587121</ele>
        <time>2021-11-07T14:20:33.432Z</time>
      </trkpt>
      <trkpt lat="47.613681" lon="7.860208">
        <ele>376.183217</ele>
        <time>2021-11-07T14:20:38.607Z</time>
      </trkpt>
      <trkpt lat="47.613653" lon="7.860682">
        <ele>375.480086</ele>
        <time>2021-11-07T14:20:41.842Z</time>
      </trkpt>
      <trkpt lat="47.613709" lon="7.860779">
        <ele>375.291365</ele>
        <time>2021-11-07T14:20:42.771Z</time>
      </trkpt>
      <trkpt lat="47.613477" lon="7.861090">
        <ele>374.605912</ele>
        <time>2021-11-07T14:20:46.282Z</time>
      </trkpt>
      <trkpt lat="47.613247" lon="7.861408">
        <ele>373.916694</ele>
        <time>2021-11-07T14:20:49.995Z</time>
      </trkpt>
      <trkpt lat="47.613183" lon="7.861517">
        <ele>373.703089</ele>
        <time>2021-11-07T14:20:51.177Z</time>
      </trkpt>
      <trkpt lat="47.613099" lon="7.861661">
        <ele>373.421686</ele>
        <time>2021-11-07T14:20:52.674Z</time>
      </trkpt>
      <trkpt lat="47.611814" lon="7.864344">
        <ele>369.537635</ele>
        <time>2021-11-07T14:21:18.498Z</time>
      </trkpt>
      <trkpt lat="47.611380" lon="7.864872">
        <ele>367.559736</ele>
        <time>2021-11-07T14:21:24.235Z</time>
      </trkpt>
      <trkpt lat="47.610539" lon="7.865746">
        <ele>363.941282</ele>
        <time>2021-11-07T14:21:34.181Z</time>
      </trkpt>
      <trkpt lat="47.609971" lon="7.866486">
        <ele>360.873133</ele>
        <time>2021-11-07T14:21:41.384Z</time>
      </trkpt>
      <trkpt lat="47.608371" lon="7.868821">
        <ele>351.500852</ele>
        <time>2021-11-07T14:22:03.439Z</time>
      </trkpt>
      <trkpt lat="47.608074" lon="7.869176">
        <ele>349.886983</ele>
        <time>2021-11-07T14:22:07.108Z</time>
      </trkpt>
      <trkpt lat="47.607911" lon="7.869279">
        <ele>349.137344</ele>
        <time>2021-11-07T14:22:08.829Z</time>
      </trkpt>
      <trkpt lat="47.607848" lon="7.869319">
        <ele>348.847393</ele>
        <time>2021-11-07T14:22:09.453Z</time>
      </trkpt>
      <trkpt lat="47.607466" lon="7.869418">
        <ele>346.976965</ele>
        <time>2021-11-07T14:22:13.083Z</time>
      </trkpt>
      <trkpt lat="47.607341" lon="7.869436">
        <ele>346.360876</ele>
        <time>2021-11-07T14:22:14.247Z</time>
      </trkpt>
      <trkpt lat="47.607251" lon="7.869449">
        <ele>345.917279</ele>
        <time>2021-11-07T14:22:15.081Z</time>
      </trkpt>
      <trkpt lat="47.606761" lon="7.869665">
        <ele>343.409595</ele>
        <time>2021-11-07T14:22:19.867Z</time>
      </trkpt>
      <trkpt lat="47.606461" lon="7.869656">
        <ele>341.937600</ele>
        <time>2021-11-07T14:22:22.680Z</time>
      </trkpt>
      <trkpt lat="47.606292" lon="7.869632">
        <ele>341.104754</ele>
        <time>2021-11-07T14:22:24.235Z</time>
      </trkpt>
      <trkpt lat="47.605878" lon="7.869549">
        <ele>339.635844</ele>
        <time>2021-11-07T14:22:28.244Z</time>
      </trkpt>
      <trkpt lat="47.605451" lon="7.869487">
        <ele>339.121286</ele>
        <time>2021-11-07T14:22:32.866Z</time>
      </trkpt>
      <trkpt lat="47.605251" lon="7.869499">
        <ele>338.881226</ele>
        <time>2021-11-07T14:22:34.986Z</time>
      </trkpt>
      <trkpt lat="47.605151" lon="7.869535">
        <ele>338.757812</ele>
        <time>2021-11-07T14:22:36.275Z</time>
      </trkpt>
      <trkpt lat="47.604178" lon="7.870272">
        <ele>337.796314</ele>
        <time>2021-11-07T14:22:54.269Z</time>
      </trkpt>
      <trkpt lat="47.603441" lon="7.870715">
        <ele>338.361391</ele>
        <time>2021-11-07T14:23:10.862Z</time>
      </trkpt>
      <trkpt lat="47.603243" lon="7.870755">
        <ele>338.503386</ele>
        <time>2021-11-07T14:23:14.910Z</time>
      </trkpt>
      <trkpt lat="47.602981" lon="7.870758">
        <ele>338.689565</ele>
        <time>2021-11-07T14:23:19.241Z</time>
      </trkpt>
      <trkpt lat="47.602723" lon="7.870667">
        <ele>338.878010</ele>
        <time>2021-11-07T14:23:23.424Z</time>
      </trkpt>
      <trkpt lat="47.602649" lon="7.870651">
        <ele>338.931149</ele>
        <time>2021-11-07T14:23:24.439Z</time>
      </trkpt>
      <trkpt lat="47.602070" lon="7.870289">
        <ele>337.759317</ele>
        <time>2021-11-07T14:23:32.527Z</time>
      </trkpt>
      <trkpt lat="47.600522" lon="7.868445">
        <ele>333.917796</ele>
        <time>2021-11-07T14:23:53.120Z</time>
      </trkpt>
      <trkpt lat="47.600376" lon="7.868280">
        <ele>333.565485</ele>
        <time>2021-11-07T14:23:55.008Z</time>
      </trkpt>
      <trkpt lat="47.599705" lon="7.867526">
        <ele>332.001348</ele>
        <time>2021-11-07T14:24:04.852Z</time>
      </trkpt>
      <trkpt lat="47.598844" lon="7.866669">
        <ele>332.336151</ele>
        <time>2021-11-07T14:24:21.922Z</time>
      </trkpt>
      <trkpt lat="47.598366" lon="7.866463">
        <ele>332.496869</ele>
        <time>2021-11-07T14:24:31.626Z</time>
      </trkpt>
      <trkpt lat="47.597848" lon="7.866506">
        <ele>332.305299</ele>
        <time>2021-11-07T14:24:40.880Z</time>
      </trkpt>
      <trkpt lat="47.596934" lon="7.867028">
        <ele>331.356151</ele>
        <time>2021-11-07T14:24:54.264Z</time>
      </trkpt>
      <trkpt lat="47.596649" lon="7.867104">
        <ele>331.075536</ele>
        <time>2021-11-07T14:24:57.428Z</time>
      </trkpt>
      <trkpt lat="47.596216" lon="7.866990">
        <ele>330.269968</ele>
        <time>2021-11-07T14:25:01.730Z</time>
      </trkpt>
      <trkpt lat="47.595529" lon="7.866433">
        <ele>327.931744</ele>
        <time>2021-11-07T14:25:09.611Z</time>
      </trkpt>
      <trkpt lat="47.595188" lon="7.866380">
        <ele>326.907832</ele>
        <time>2021-11-07T14:25:13.259Z</time>
      </trkpt>
      <trkpt lat="47.594961" lon="7.866424">
        <ele>326.224171</ele>
        <time>2021-11-07T14:25:15.527Z</time>
      </trkpt>
      <trkpt lat="47.594779" lon="7.866515">
        <ele>325.650596</ele>
        <time>2021-11-07T14:25:17.874Z</time>
      </trkpt>
      <trkpt lat="47.594420" lon="7.866749">
        <ele>323.620971</ele>
        <time>2021-11-07T14:25:21.994Z</time>
      </trkpt>
      <trkpt lat="47.594096" lon="7.866777">
        <ele>321.803372</ele>
        <time>2021-11-07T14:25:25.263Z</time>
      </trkpt>
      <trkpt lat="47.593941" lon="7.866752">
        <ele>320.930194</ele>
        <time>2021-11-07T14:25:26.677Z</time>
      </trkpt>
      <trkpt lat="47.593497" lon="7.866682">
        <ele>318.429615</ele>
        <time>2021-11-07T14:25:30.763Z</time>
      </trkpt>
      <trkpt lat="47.593114" lon="7.866603">
        <ele>316.264020</ele>
        <time>2021-11-07T14:25:34.271Z</time>
      </trkpt>
      <trkpt lat="47.592687" lon="7.866538">
        <ele>312.536219</ele>
        <time>2021-11-07T14:25:38.003Z</time>
      </trkpt>
      <trkpt lat="47.592389" lon="7.866483">
        <ele>309.396495</ele>
        <time>2021-11-07T14:25:40.578Z</time>
      </trkpt>
      <trkpt lat="47.592194" lon="7.866446">
        <ele>307.341086</ele>
        <time>2021-11-07T14:25:42.224Z</time>
      </trkpt>
      <trkpt lat="47.591755" lon="7.866378">
        <ele>302.726230</ele>
        <time>2021-11-07T14:25:45.963Z</time>
      </trkpt>
      <trkpt lat="47.591538" lon="7.866361">
        <ele>300.454264</ele>
        <time>2021-11-07T14:25:47.792Z</time>
      </trkpt>
      <trkpt lat="47.591332" lon="7.866357">
        <ele>298.300286</ele>
        <time>2021-11-07T14:25:49.570Z</time>
      </trkpt>
      <trkpt lat="47.591128" lon="7.866362">
        <ele>296.402796</ele>
        <time>2021-11-07T14:25:51.292Z</time>
      </trkpt>
      <trkpt lat="47.590822" lon="7.866391">
        <ele>295.018639</ele>
        <time>2021-11-07T14:25:53.963Z</time>
      </trkpt>
      <trkpt lat="47.590711" lon="7.865706">
        <ele>292.873833</ele>
        <time>2021-11-07T14:25:58.387Z</time>
      </trkpt>
      <trkpt lat="47.590697" lon="7.865616">
        <ele>292.592638</ele>
        <time>2021-11-07T14:25:59.006Z</time>
      </trkpt>
      <trkpt lat="47.590697" lon="7.865616">
        <ele>292.592638</ele>
        <time>2021-11-07T14:25:59.043Z</time>
      </trkpt>
      <trkpt lat="47.590697" lon="7.865616">
        <ele>292.592638</ele>
        <time>2021-11-07T14:25:59.047Z</time>
      </trkpt>
      <trkpt lat="47.590641" lon="7.865166">
        <ele>291.199502</ele>
        <time>2021-11-07T14:26:02.155Z</time>
      </trkpt>
      <trkpt lat="47.590547" lon="7.864188">
        <ele>288.481053</ele>
        <time>2021-11-07T14:26:10.209Z</time>
      </trkpt>
      <trkpt lat="47.590529" lon="7.863327">
        <ele>288.661106</ele>
        <time>2021-11-07T14:26:20.318Z</time>
      </trkpt>
      <trkpt lat="47.590535" lon="7.862855">
        <ele>288.759781</ele>
        <time>2021-11-07T14:26:25.989Z</time>
      </trkpt>
      <trkpt lat="47.590556" lon="7.861868">
        <ele>288.966187</ele>
        <time>2021-11-07T14:26:37.141Z</time>
      </trkpt>
      <trkpt lat="47.590583" lon="7.860850">
        <ele>289.232461</ele>
        <time>2021-11-07T14:26:48.622Z</time>
      </trkpt>
      <trkpt lat="47.590588" lon="7.860647">
        <ele>289.289141</ele>
        <time>2021-11-07T14:26:51.094Z</time>
      </trkpt>
      <trkpt lat="47.590611" lon="7.859435">
        <ele>289.627458</ele>
        <time>2021-11-07T14:27:04.647Z</time>
      </trkpt>
      <trkpt lat="47.590610" lon="7.858648">
        <ele>289.732283</ele>
        <time>2021-11-07T14:27:13.007Z</time>
      </trkpt>
      <trkpt lat="47.590607" lon="7.858460">
        <ele>289.712181</ele>
        <time>2021-11-07T14:27:15.076Z</time>
      </trkpt>
      <trkpt lat="47.590561" lon="7.857127">
        <ele>289.569500</ele>
        <time>2021-11-07T14:27:27.975Z</time>
      </trkpt>
      <trkpt lat="47.590520" lon="7.855958">
        <ele>289.386110</ele>
        <time>2021-11-07T14:27:38.361Z</time>
      </trkpt>
      <trkpt lat="47.590424" lon="7.854393">
        <ele>288.935425</ele>
        <time>2021-11-07T14:27:52.110Z</time>
      </trkpt>
      <trkpt lat="47.590357" lon="7.853304">
        <ele>288.778625</ele>
        <time>2021-11-07T14:28:02.686Z</time>
      </trkpt>
      <trkpt lat="47.590329" lon="7.852851">
        <ele>288.869776</ele>
        <time>2021-11-07T14:28:07.483Z</time>
      </trkpt>
      <trkpt lat="47.590057" lon="7.850113">
        <ele>289.430202</ele>
        <time>2021-11-07T14:28:38.467Z</time>
      </trkpt>
      <trkpt lat="47.590017" lon="7.849859">
        <ele>289.484212</ele>
        <time>2021-11-07T14:28:41.319Z</time>
      </trkpt>
      <trkpt lat="47.589928" lon="7.849282">
        <ele>289.606777</ele>
        <time>2021-11-07T14:28:47.756Z</time>
      </trkpt>
      <trkpt lat="47.589635" lon="7.847510">
        <ele>289.895907</ele>
        <time>2021-11-07T14:29:07.078Z</time>
      </trkpt>
      <trkpt lat="47.589339" lon="7.845650">
        <ele>290.111620</ele>
        <time>2021-11-07T14:29:26.613Z</time>
      </trkpt>
      <trkpt lat="47.589208" lon="7.844692">
        <ele>290.296896</ele>
        <time>2021-11-07T14:29:36.780Z</time>
      </trkpt>
      <trkpt lat="47.589148" lon="7.843298">
        <ele>290.561655</ele>
        <time>2021-11-07T14:29:52.053Z</time>
      </trkpt>
      <trkpt lat="47.589148" lon="7.842161">
        <ele>290.895063</ele>
        <time>2021-11-07T14:30:05.020Z</time>
      </trkpt>
      <trkpt lat="47.589184" lon="7.841335">
        <ele>291.151900</ele>
        <time>2021-11-07T14:30:14.505Z</time>
      </trkpt>
      <trkpt lat="47.589201" lon="7.841192">
        <ele>291.196955</ele>
        <time>2021-11-07T14:30:16.219Z</time>
      </trkpt>
      <trkpt lat="47.589403" lon="7.839556">
        <ele>291.622235</ele>
        <time>2021-11-07T14:30:34.804Z</time>
      </trkpt>
      <trkpt lat="47.589698" lon="7.838226">
        <ele>291.922239</ele>
        <time>2021-11-07T14:30:49.815Z</time>
      </trkpt>
      <trkpt lat="47.589864" lon="7.837623">
        <ele>291.788878</ele>
        <time>2021-11-07T14:30:56.841Z</time>
      </trkpt>
      <trkpt lat="47.589926" lon="7.837360">
        <ele>291.618258</ele>
        <time>2021-11-07T14:30:59.714Z</time>
      </trkpt>
      <trkpt lat="47.590062" lon="7.836819">
        <ele>291.264679</ele>
        <time>2021-11-07T14:31:05.084Z</time>
      </trkpt>
      <trkpt lat="47.590128" lon="7.836511">
        <ele>291.066766</ele>
        <time>2021-11-07T14:31:07.909Z</time>
      </trkpt>
      <trkpt lat="47.590166" lon="7.836338">
        <ele>290.955342</ele>
        <time>2021-11-07T14:31:09.479Z</time>
      </trkpt>
      <trkpt lat="47.590263" lon="7.835856">
        <ele>290.647302</ele>
        <time>2021-11-07T14:31:13.492Z</time>
      </trkpt>
      <trkpt lat="47.589181" lon="7.835983">
        <ele>287.907468</ele>
        <time>2021-11-07T14:31:24.816Z</time>
      </trkpt>
      <trkpt lat="47.588272" lon="7.836090">
        <ele>284.992764</ele>
        <time>2021-11-07T14:31:33.787Z</time>
      </trkpt>
      <trkpt lat="47.587903" lon="7.836007">
        <ele>284.023051</ele>
        <time>2021-11-07T14:31:37.485Z</time>
      </trkpt>
      <trkpt lat="47.587628" lon="7.835942">
        <ele>283.378649</ele>
        <time>2021-11-07T14:31:40.300Z</time>
      </trkpt>
      <trkpt lat="47.587848" lon="7.834235">
        <ele>280.666260</ele>
        <time>2021-11-07T14:31:52.939Z</time>
      </trkpt>
      <trkpt lat="47.586496" lon="7.833050">
        <ele>280.585460</ele>
        <time>2021-11-07T14:32:15.251Z</time>
      </trkpt>
      <trkpt lat="47.586276" lon="7.833601">
        <ele>280.930014</ele>
        <time>2021-11-07T14:32:23.504Z</time>
      </trkpt>
      <trkpt lat="47.585278" lon="7.832688">
        <ele>284.315784</ele>
        <time>2021-11-07T14:32:54.881Z</time>
      </trkpt>
      <trkpt lat="47.585247" lon="7.832651">
        <ele>284.430685</ele>
        <time>2021-11-07T14:32:56.123Z</time>
      </trkpt>
      <trkpt lat="47.585195" lon="7.832588">
        <ele>284.624570</ele>
        <time>2021-11-07T14:32:58.218Z</time>
      </trkpt>
      <trkpt lat="47.585027" lon="7.832425">
        <ele>285.204245</ele>
        <time>2021-11-07T14:33:03.862Z</time>
      </trkpt>
      <trkpt lat="47.584807" lon="7.832311">
        <ele>285.909233</ele>
        <time>2021-11-07T14:33:10.636Z</time>
      </trkpt>
      <trkpt lat="47.584717" lon="7.832264">
        <ele>286.314494</ele>
        <time>2021-11-07T14:33:13.527Z</time>
      </trkpt>
      <trkpt lat="47.584367" lon="7.832247">
        <ele>287.801787</ele>
        <time>2021-11-07T14:33:24.586Z</time>
      </trkpt>
      <trkpt lat="47.584156" lon="7.832334">
        <ele>288.731942</ele>
        <time>2021-11-07T14:33:32.066Z</time>
      </trkpt>
      <trkpt lat="47.584156" lon="7.832334">
        <ele>288.731942</ele>
        <time>2021-11-07T14:33:32.071Z</time>
      </trkpt>
      <trkpt lat="47.584156" lon="7.832334">
        <ele>288.731942</ele>
        <time>2021-11-07T14:33:32.123Z</time>
      </trkpt>
      <trkpt lat="47.584029" lon="7.832543">
        <ele>289.537802</ele>
        <time>2021-11-07T14:33:39.112Z</time>
      </trkpt>
      <trkpt lat="47.583849" lon="7.832883">
        <ele>290.775997</ele>
        <time>2021-11-07T14:33:49.413Z</time>
      </trkpt>
      <trkpt lat="47.583696" lon="7.833171">
        <ele>291.826212</ele>
        <time>2021-11-07T14:33:57.936Z</time>
      </trkpt>
      <trkpt lat="47.583523" lon="7.833509">
        <ele>293.041710</ele>
        <time>2021-11-07T14:34:06.677Z</time>
      </trkpt>
      <trkpt lat="47.583401" lon="7.833658">
        <ele>293.588360</ele>
        <time>2021-11-07T14:34:10.546Z</time>
      </trkpt>
      <trkpt lat="47.583327" lon="7.833750">
        <ele>293.805616</ele>
        <time>2021-11-07T14:34:13.675Z</time>
      </trkpt>
      <trkpt lat="47.583163" lon="7.833942">
        <ele>294.275712</ele>
        <time>2021-11-07T14:34:19.164Z</time>
      </trkpt>
      <trkpt lat="47.582828" lon="7.834117">
        <ele>295.074740</ele>
        <time>2021-11-07T14:34:27.611Z</time>
      </trkpt>
      <trkpt lat="47.580816" lon="7.834599">
        <ele>298.352587</ele>
        <time>2021-11-07T14:35:11.491Z</time>
      </trkpt>
      <trkpt lat="47.580667" lon="7.834627">
        <ele>298.486525</ele>
        <time>2021-11-07T14:35:13.873Z</time>
      </trkpt>
      <trkpt lat="47.579073" lon="7.834987">
        <ele>298.476904</ele>
        <time>2021-11-07T14:35:37.834Z</time>
      </trkpt>
      <trkpt lat="47.576219" lon="7.835650">
        <ele>295.349684</ele>
        <time>2021-11-07T14:36:11.494Z</time>
      </trkpt>
      <trkpt lat="47.575959" lon="7.835718">
        <ele>295.206098</ele>
        <time>2021-11-07T14:36:14.649Z</time>
      </trkpt>
      <trkpt lat="47.575033" lon="7.835907">
        <ele>294.697737</ele>
        <time>2021-11-07T14:36:27.102Z</time>
      </trkpt>
      <trkpt lat="47.574568" lon="7.836025">
        <ele>294.524225</ele>
        <time>2021-11-07T14:36:34.089Z</time>
      </trkpt>
      <trkpt lat="47.574158" lon="7.836106">
        <ele>294.681144</ele>
        <time>2021-11-07T14:36:40.762Z</time>
      </trkpt>
      <trkpt lat="47.573815" lon="7.836215">
        <ele>294.814227</ele>
        <time>2021-11-07T14:36:48.441Z</time>
      </trkpt>
      <trkpt lat="47.573348" lon="7.836386">
        <ele>294.996721</ele>
        <time>2021-11-07T14:36:59.293Z</time>
      </trkpt>
      <trkpt lat="47.572760" lon="7.836606">
        <ele>295.264227</ele>
        <time>2021-11-07T14:37:12.904Z</time>
      </trkpt>
      <trkpt lat="47.572296" lon="7.836777">
        <ele>295.570592</ele>
        <time>2021-11-07T14:37:23.329Z</time>
      </trkpt>
      <trkpt lat="47.572139" lon="7.836834">
        <ele>295.674165</ele>
        <time>2021-11-07T14:37:26.816Z</time>
      </trkpt>
      <trkpt lat="47.571871" lon="7.836932">
        <ele>295.851037</ele>
        <time>2021-11-07T14:37:32.853Z</time>
      </trkpt>
      <trkpt lat="47.571771" lon="7.836971">
        <ele>295.917294</ele>
        <time>2021-11-07T14:37:35.089Z</time>
      </trkpt>
      <trkpt lat="47.571254" lon="7.837161">
        <ele>296.258598</ele>
        <time>2021-11-07T14:37:47.540Z</time>
      </trkpt>
      <trkpt lat="47.570985" lon="7.837265">
        <ele>296.560867</ele>
        <time>2021-11-07T14:37:54.493Z</time>
      </trkpt>
      <trkpt lat="47.570872" lon="7.837307">
        <ele>296.718418</ele>
        <time>2021-11-07T14:37:57.509Z</time>
      </trkpt>
      <trkpt lat="47.570298" lon="7.837528">
        <ele>297.520447</ele>
        <time>2021-11-07T14:38:12.831Z</time>
      </trkpt>
      <trkpt lat="47.570038" lon="7.837643">
        <ele>297.887388</ele>
        <time>2021-11-07T14:38:19.955Z</time>
      </trkpt>
      <trkpt lat="47.569907" lon="7.837696">
        <ele>298.071032</ele>
        <time>2021-11-07T14:38:23.476Z</time>
      </trkpt>
      <trkpt lat="47.569814" lon="7.837733">
        <ele>298.201255</ele>
        <time>2021-11-07T14:38:26.037Z</time>
      </trkpt>
      <trkpt lat="47.569665" lon="7.837789">
        <ele>298.409137</ele>
        <time>2021-11-07T14:38:30.001Z</time>
      </trkpt>
      <trkpt lat="47.569522" lon="7.837844">
        <ele>298.608933</ele>
        <time>2021-11-07T14:38:33.856Z</time>
      </trkpt>
      <trkpt lat="47.569310" lon="7.837922">
        <ele>298.879061</ele>
        <time>2021-11-07T14:38:39.603Z</time>
      </trkpt>
      <trkpt lat="47.568988" lon="7.838054">
        <ele>299.253148</ele>
        <time>2021-11-07T14:38:48.380Z</time>
      </trkpt>
      <trkpt lat="47.568420" lon="7.838300">
        <ele>299.915747</ele>
        <time>2021-11-07T14:39:03.638Z</time>
      </trkpt>
      <trkpt lat="47.568160" lon="7.838415">
        <ele>300.219562</ele>
        <time>2021-11-07T14:39:10.132Z</time>
      </trkpt>
      <trkpt lat="47.568042" lon="7.838436">
        <ele>300.352638</ele>
        <time>2021-11-07T14:39:12.795Z</time>
      </trkpt>
      <trkpt lat="47.567936" lon="7.838380">
        <ele>300.478643</ele>
        <time>2021-11-07T14:39:15.389Z</time>
      </trkpt>
      <trkpt lat="47.567846" lon="7.838609">
        <ele>300.678861</ele>
        <time>2021-11-07T14:39:18.405Z</time>
      </trkpt>
      <trkpt lat="47.567823" lon="7.838648">
        <ele>300.717994</ele>
        <time>2021-11-07T14:39:19.040Z</time>
      </trkpt>
      <trkpt lat="47.567634" lon="7.839037">
        <ele>300.956419</ele>
        <time>2021-11-07T14:39:24.351Z</time>
      </trkpt>
      <trkpt lat="47.567626" lon="7.839064">
        <ele>300.969770</ele>
        <time>2021-11-07T14:39:24.756Z</time>
      </trkpt>
      <trkpt lat="47.567564" lon="7.839283">
        <ele>301.077298</ele>
        <time>2021-11-07T14:39:27.402Z</time>
      </trkpt>
      <trkpt lat="47.567530" lon="7.839459">
        <ele>301.160184</ele>
        <time>2021-11-07T14:39:29.500Z</time>
      </trkpt>
      <trkpt lat="47.567510" lon="7.839548">
        <ele>301.202655</ele>
        <time>2021-11-07T14:39:30.593Z</time>
      </trkpt>
      <trkpt lat="47.567481" lon="7.839664">
        <ele>301.258664</ele>
        <time>2021-11-07T14:39:32.009Z</time>
      </trkpt>
      <trkpt lat="47.567563" lon="7.839727">
        <ele>301.320642</ele>
        <time>2021-11-07T14:39:34.136Z</time>
      </trkpt>
      <trkpt lat="47.567563" lon="7.839727">
        <ele>301.320642</ele>
        <time>2021-11-07T14:39:34.142Z</time>
      </trkpt>
      <trkpt lat="47.567563" lon="7.839727">
        <ele>301.320642</ele>
        <time>2021-11-07T14:39:34.182Z</time>
      </trkpt>
      <trkpt lat="47.567481" lon="7.839664">
        <ele>301.382620</ele>
        <time>2021-11-07T14:39:36.216Z</time>
      </trkpt>
      <trkpt lat="47.567406" lon="7.839778">
        <ele>301.454708</ele>
        <time>2021-11-07T14:39:38.240Z</time>
      </trkpt>
      <trkpt lat="47.567111" lon="7.839998">
        <ele>301.676308</ele>
        <time>2021-11-07T14:39:44.088Z</time>
      </trkpt>
      <trkpt lat="47.566826" lon="7.840179">
        <ele>301.884369</ele>
        <time>2021-11-07T14:39:49.559Z</time>
      </trkpt>
      <trkpt lat="47.566592" lon="7.840279">
        <ele>302.095276</ele>
        <time>2021-11-07T14:39:54.048Z</time>
      </trkpt>
      <trkpt lat="47.566515" lon="7.840312">
        <ele>302.185830</ele>
        <time>2021-11-07T14:39:55.394Z</time>
      </trkpt>
      <trkpt lat="47.566450" lon="7.840326">
        <ele>302.260034</ele>
        <time>2021-11-07T14:39:56.641Z</time>
      </trkpt>
      <trkpt lat="47.566350" lon="7.840350">
        <ele>302.374479</ele>
        <time>2021-11-07T14:39:58.453Z</time>
      </trkpt>
      <trkpt lat="47.566221" lon="7.840340">
        <ele>302.520414</ele>
        <time>2021-11-07T14:40:00.789Z</time>
      </trkpt>
      <trkpt lat="47.566142" lon="7.840322">
        <ele>302.610712</ele>
        <time>2021-11-07T14:40:02.140Z</time>
      </trkpt>
      <trkpt lat="47.566081" lon="7.840309">
        <ele>302.680334</ele>
        <time>2021-11-07T14:40:03.353Z</time>
      </trkpt>
      <trkpt lat="47.565906" lon="7.840272">
        <ele>302.880040</ele>
        <time>2021-11-07T14:40:06.804Z</time>
      </trkpt>
      <trkpt lat="47.565343" lon="7.840185">
        <ele>303.519528</ele>
        <time>2021-11-07T14:40:18.124Z</time>
      </trkpt>
      <trkpt lat="47.565233" lon="7.840176">
        <ele>303.643989</ele>
        <time>2021-11-07T14:40:20.462Z</time>
      </trkpt>
      <trkpt lat="47.565168" lon="7.840179">
        <ele>303.717457</ele>
        <time>2021-11-07T14:40:21.838Z</time>
      </trkpt>
      <trkpt lat="47.565057" lon="7.840213">
        <ele>303.845508</ele>
        <time>2021-11-07T14:40:24.081Z</time>
      </trkpt>
      <trkpt lat="47.564936" lon="7.840261">
        <ele>303.987018</ele>
        <time>2021-11-07T14:40:26.797Z</time>
      </trkpt>
      <trkpt lat="47.564558" lon="7.840516">
        <ele>304.433540</ele>
        <time>2021-11-07T14:40:35.079Z</time>
      </trkpt>
      <trkpt lat="47.564534" lon="7.840532">
        <ele>304.461759</ele>
        <time>2021-11-07T14:40:35.576Z</time>
      </trkpt>
      <trkpt lat="47.564463" lon="7.840580">
        <ele>304.545438</ele>
        <time>2021-11-07T14:40:37.190Z</time>
      </trkpt>
      <trkpt lat="47.564094" lon="7.840838">
        <ele>304.982934</ele>
        <time>2021-11-07T14:40:44.851Z</time>
      </trkpt>
      <trkpt lat="47.563986" lon="7.840916">
        <ele>305.111760</ele>
        <time>2021-11-07T14:40:47.139Z</time>
      </trkpt>
      <trkpt lat="47.563941" lon="7.840948">
        <ele>305.165280</ele>
        <time>2021-11-07T14:40:48.064Z</time>
      </trkpt>
      <trkpt lat="47.563805" lon="7.841046">
        <ele>305.327434</ele>
        <time>2021-11-07T14:40:50.870Z</time>
      </trkpt>
      <trkpt lat="47.563659" lon="7.841150">
        <ele>305.501133</ele>
        <time>2021-11-07T14:40:53.762Z</time>
      </trkpt>
      <trkpt lat="47.563483" lon="7.841269">
        <ele>305.708568</ele>
        <time>2021-11-07T14:40:57.491Z</time>
      </trkpt>
      <trkpt lat="47.563300" lon="7.841391">
        <ele>305.923736</ele>
        <time>2021-11-07T14:41:01.051Z</time>
      </trkpt>
      <trkpt lat="47.563016" lon="7.841568">
        <ele>306.295419</ele>
        <time>2021-11-07T14:41:06.908Z</time>
      </trkpt>
      <trkpt lat="47.562965" lon="7.841597">
        <ele>306.361673</ele>
        <time>2021-11-07T14:41:07.886Z</time>
      </trkpt>
      <trkpt lat="47.562904" lon="7.841632">
        <ele>306.441011</ele>
        <time>2021-11-07T14:41:09.115Z</time>
      </trkpt>
      <trkpt lat="47.562574" lon="7.841873">
        <ele>306.887223</ele>
        <time>2021-11-07T14:41:16.081Z</time>
      </trkpt>
      <trkpt lat="47.562440" lon="7.842083">
        <ele>307.123769</ele>
        <time>2021-11-07T14:41:19.700Z</time>
      </trkpt>
      <trkpt lat="47.562385" lon="7.842183">
        <ele>307.229355</ele>
        <time>2021-11-07T14:41:21.267Z</time>
      </trkpt>
      <trkpt lat="47.562300" lon="7.842326">
        <ele>307.385324</ele>
        <time>2021-11-07T14:41:24.167Z</time>
      </trkpt>
      <trkpt lat="47.562179" lon="7.842500">
        <ele>307.589819</ele>
        <time>2021-11-07T14:41:27.645Z</time>
      </trkpt>
      <trkpt lat="47.561498" lon="7.843130">
        <ele>308.493739</ele>
        <time>2021-11-07T14:41:44.357Z</time>
      </trkpt>
      <trkpt lat="47.561434" lon="7.843181">
        <ele>308.567992</ele>
        <time>2021-11-07T14:41:46.162Z</time>
      </trkpt>
      <trkpt lat="47.561038" lon="7.843502">
        <ele>309.029223</ele>
        <time>2021-11-07T14:41:54.863Z</time>
      </trkpt>
      <trkpt lat="47.560934" lon="7.843550">
        <ele>309.140529</ele>
        <time>2021-11-07T14:41:57.017Z</time>
      </trkpt>
      <trkpt lat="47.560812" lon="7.843560">
        <ele>309.265384</ele>
        <time>2021-11-07T14:41:59.261Z</time>
      </trkpt>
      <trkpt lat="47.560515" lon="7.843379">
        <ele>309.593533</ele>
        <time>2021-11-07T14:42:04.998Z</time>
      </trkpt>
      <trkpt lat="47.560430" lon="7.843341">
        <ele>309.684256</ele>
        <time>2021-11-07T14:42:06.800Z</time>
      </trkpt>
      <trkpt lat="47.560338" lon="7.843341">
        <ele>309.778265</ele>
        <time>2021-11-07T14:42:08.022Z</time>
      </trkpt>
      <trkpt lat="47.560209" lon="7.843393">
        <ele>309.914872</ele>
        <time>2021-11-07T14:42:10.498Z</time>
      </trkpt>
      <trkpt lat="47.560139" lon="7.843433">
        <ele>309.956578</ele>
        <time>2021-11-07T14:42:11.817Z</time>
      </trkpt>
      <trkpt lat="47.559847" lon="7.843604">
        <ele>309.938715</ele>
        <time>2021-11-07T14:42:16.985Z</time>
      </trkpt>
      <trkpt lat="47.559583" lon="7.843813">
        <ele>309.921687</ele>
        <time>2021-11-07T14:42:21.476Z</time>
      </trkpt>
      <trkpt lat="47.559158" lon="7.844233">
        <ele>309.892625</ele>
        <time>2021-11-07T14:42:28.563Z</time>
      </trkpt>
      <trkpt lat="47.559109" lon="7.844229">
        <ele>309.889833</ele>
        <time>2021-11-07T14:42:29.177Z</time>
      </trkpt>
      <trkpt lat="47.559060" lon="7.844197">
        <ele>309.886786</ele>
        <time>2021-11-07T14:42:29.821Z</time>
      </trkpt>
      <trkpt lat="47.558884" lon="7.843836">
        <ele>309.869688</ele>
        <time>2021-11-07T14:42:34.009Z</time>
      </trkpt>
      <trkpt lat="47.558555" lon="7.843392">
        <ele>309.867519</ele>
        <time>2021-11-07T14:42:40.033Z</time>
      </trkpt>
      <trkpt lat="47.558471" lon="7.843365">
        <ele>309.872286</ele>
        <time>2021-11-07T14:42:41.303Z</time>
      </trkpt>
      <trkpt lat="47.558479" lon="7.843288">
        <ele>309.875201</ele>
        <time>2021-11-07T14:42:42.093Z</time>
      </trkpt>
      <trkpt lat="47.558471" lon="7.843365">
        <ele>309.878116</ele>
        <time>2021-11-07T14:42:42.841Z</time>
      </trkpt>
      <trkpt lat="47.558405" lon="7.843371">
        <ele>309.881783</ele>
        <time>2021-11-07T14:42:43.920Z</time>
      </trkpt>
      <trkpt lat="47.558136" lon="7.843582">
        <ele>309.898661</ele>
        <time>2021-11-07T14:42:48.209Z</time>
      </trkpt>
      <trkpt lat="47.557967" lon="7.843683">
        <ele>309.908766</ele>
        <time>2021-11-07T14:42:50.810Z</time>
      </trkpt>
      <trkpt lat="47.557846" lon="7.843756">
        <ele>309.916010</ele>
        <time>2021-11-07T14:42:52.815Z</time>
      </trkpt>
      <trkpt lat="47.557759" lon="7.843839">
        <ele>309.921748</ele>
        <time>2021-11-07T14:42:54.561Z</time>
      </trkpt>
      <trkpt lat="47.557715" lon="7.843940">
        <ele>309.926247</ele>
        <time>2021-11-07T14:42:55.788Z</time>
      </trkpt>
      <trkpt lat="47.557560" lon="7.844433">
        <ele>309.946600</ele>
        <time>2021-11-07T14:43:01.752Z</time>
      </trkpt>
      <trkpt lat="47.557282" lon="7.844832">
        <ele>310.107616</ele>
        <time>2021-11-07T14:43:08.190Z</time>
      </trkpt>
      <trkpt lat="47.557134" lon="7.845095">
        <ele>310.266683</ele>
        <time>2021-11-07T14:43:11.966Z</time>
      </trkpt>
      <trkpt lat="47.556636" lon="7.845928">
        <ele>310.783618</ele>
        <time>2021-11-07T14:43:24.816Z</time>
      </trkpt>
      <trkpt lat="47.556060" lon="7.846859">
        <ele>311.504430</ele>
        <time>2021-11-07T14:43:40.943Z</time>
      </trkpt>
      <trkpt lat="47.555990" lon="7.846965">
        <ele>311.625682</ele>
        <time>2021-11-07T14:43:42.927Z</time>
      </trkpt>
      <trkpt lat="47.555966" lon="7.846932">
        <ele>311.665347</ele>
        <time>2021-11-07T14:43:43.499Z</time>
      </trkpt>
      <trkpt lat="47.555966" lon="7.846932">
        <ele>311.665347</ele>
        <time>2021-11-07T14:43:43.515Z</time>
      </trkpt>
      <trkpt lat="47.555892" lon="7.846856">
        <ele>311.774424</ele>
        <time>2021-11-07T14:43:45.070Z</time>
      </trkpt>
      <trkpt lat="47.555855" lon="7.846815">
        <ele>311.830396</ele>
        <time>2021-11-07T14:43:45.980Z</time>
      </trkpt>
      <trkpt lat="47.555727" lon="7.846715">
        <ele>312.005698</ele>
        <time>2021-11-07T14:43:48.984Z</time>
      </trkpt>
      <trkpt lat="47.555199" lon="7.846687">
        <ele>312.645763</ele>
        <time>2021-11-07T14:43:58.950Z</time>
      </trkpt>
      <trkpt lat="47.555068" lon="7.846672">
        <ele>312.804939</ele>
        <time>2021-11-07T14:44:01.813Z</time>
      </trkpt>
      <trkpt lat="47.554995" lon="7.846915">
        <ele>313.022409</ele>
        <time>2021-11-07T14:44:05.537Z</time>
      </trkpt>
      <trkpt lat="47.554916" lon="7.847094">
        <ele>313.197275</ele>
        <time>2021-11-07T14:44:08.487Z</time>
      </trkpt>
      <trkpt lat="47.554892" lon="7.847148">
        <ele>313.250139</ele>
        <time>2021-11-07T14:44:09.507Z</time>
      </trkpt>
      <trkpt lat="47.554759" lon="7.847388">
        <ele>313.527400</ele>
        <time>2021-11-07T14:44:13.827Z</time>
      </trkpt>
      <trkpt lat="47.554618" lon="7.847626">
        <ele>313.832441</ele>
        <time>2021-11-07T14:44:18.387Z</time>
      </trkpt>
      <trkpt lat="47.554465" lon="7.847858">
        <ele>314.144883</ele>
        <time>2021-11-07T14:44:23.021Z</time>
      </trkpt>
      <trkpt lat="47.554351" lon="7.848049">
        <ele>314.390482</ele>
        <time>2021-11-07T14:44:26.483Z</time>
      </trkpt>
      <trkpt lat="47.554269" lon="7.848188">
        <ele>314.568308</ele>
        <time>2021-11-07T14:44:29.015Z</time>
      </trkpt>
      <trkpt lat="47.554209" lon="7.848300">
        <ele>314.706045</ele>
        <time>2021-11-07T14:44:31.095Z</time>
      </trkpt>
      <trkpt lat="47.554055" lon="7.848586">
        <ele>315.058462</ele>
        <time>2021-11-07T14:44:35.964Z</time>
      </trkpt>
      <trkpt lat="47.553725" lon="7.849291">
        <ele>315.884880</ele>
        <time>2021-11-07T14:44:47.332Z</time>
      </trkpt>
      <trkpt lat="47.553605" lon="7.849629">
        <ele>316.367242</ele>
        <time>2021-11-07T14:44:52.786Z</time>
      </trkpt>
      <trkpt lat="47.553537" lon="7.849904">
        <ele>316.752599</ele>
        <time>2021-11-07T14:44:56.977Z</time>
      </trkpt>
      <trkpt lat="47.553380" lon="7.850453">
        <ele>317.537129</ele>
        <time>2021-11-07T14:45:05.829Z</time>
      </trkpt>
      <trkpt lat="47.553344" lon="7.850525">
        <ele>317.655030</ele>
        <time>2021-11-07T14:45:07.095Z</time>
      </trkpt>
      <trkpt lat="47.553283" lon="7.850634">
        <ele>317.841341</ele>
        <time>2021-11-07T14:45:09.149Z</time>
      </trkpt>
      <trkpt lat="47.552876" lon="7.851300">
        <ele>319.023508</ele>
        <time>2021-11-07T14:45:22.982Z</time>
      </trkpt>
      <trkpt lat="47.552678" lon="7.851709">
        <ele>319.840135</ele>
        <time>2021-11-07T14:45:31.663Z</time>
      </trkpt>
      <trkpt lat="47.552449" lon="7.852231">
        <ele>321.187716</ele>
        <time>2021-11-07T14:45:42.963Z</time>
      </trkpt>
      <trkpt lat="47.552272" lon="7.852167">
        <ele>321.772027</ele>
        <time>2021-11-07T14:45:48.363Z</time>
      </trkpt>
      <trkpt lat="47.552097" lon="7.852063">
        <ele>322.376727</ele>
        <time>2021-11-07T14:45:53.610Z</time>
      </trkpt>
      <trkpt lat="47.552042" lon="7.852007">
        <ele>322.590750</ele>
        <time>2021-11-07T14:45:56.010Z</time>
      </trkpt>
      <trkpt lat="47.551925" lon="7.851845">
        <ele>323.104319</ele>
        <time>2021-11-07T14:46:00.276Z</time>
      </trkpt>
      <trkpt lat="47.551830" lon="7.851603">
        <ele>323.710295</ele>
        <time>2021-11-07T14:46:06.098Z</time>
      </trkpt>
      <trkpt lat="47.551660" lon="7.851725">
        <ele>324.316084</ele>
        <time>2021-11-07T14:46:11.332Z</time>
      </trkpt>
      <trkpt lat="47.551516" lon="7.851950">
        <ele>324.987252</ele>
        <time>2021-11-07T14:46:17.890Z</time>
      </trkpt>
      <trkpt lat="47.550221" lon="7.853833">
        <ele>329.851259</ele>
        <time>2021-11-07T14:47:05.182Z</time>
      </trkpt>
      <trkpt lat="47.549883" lon="7.854434">
        <ele>330.285820</ele>
        <time>2021-11-07T14:47:15.302Z</time>
      </trkpt>
      <trkpt lat="47.549566" lon="7.855225">
        <ele>330.663792</ele>
        <time>2021-11-07T14:47:29.161Z</time>
      </trkpt>
      <trkpt lat="47.549362" lon="7.855774">
        <ele>330.921287</ele>
        <time>2021-11-07T14:47:37.649Z</time>
      </trkpt>
      <trkpt lat="47.548887" lon="7.857308">
        <ele>331.176831</ele>
        <time>2021-11-07T14:47:59.757Z</time>
      </trkpt>
      <trkpt lat="47.548743" lon="7.857692">
        <ele>331.205861</ele>
        <time>2021-11-07T14:48:05.729Z</time>
      </trkpt>
      <trkpt lat="47.548701" lon="7.857893">
        <ele>331.219766</ele>
        <time>2021-11-07T14:48:08.701Z</time>
      </trkpt>
      <trkpt lat="47.548686" lon="7.857973">
        <ele>331.225253</ele>
        <time>2021-11-07T14:48:09.824Z</time>
      </trkpt>
      <trkpt lat="47.548611" lon="7.858381">
        <ele>331.253197</ele>
        <time>2021-11-07T14:48:16.038Z</time>
      </trkpt>
      <trkpt lat="47.548334" lon="7.859801">
        <ele>332.191150</ele>
        <time>2021-11-07T14:48:39.075Z</time>
      </trkpt>
      <trkpt lat="47.548049" lon="7.860929">
        <ele>333.087624</ele>
        <time>2021-11-07T14:49:00.094Z</time>
      </trkpt>
      <trkpt lat="47.547930" lon="7.861711">
        <ele>333.252420</ele>
        <time>2021-11-07T14:49:14.857Z</time>
      </trkpt>
      <trkpt lat="47.547568" lon="7.863151">
        <ele>333.252420</ele>
        <time>2021-11-07T14:49:43.544Z</time>
      </trkpt>
      <trkpt lat="47.547320" lon="7.863864">
        <ele>333.252420</ele>
        <time>2021-11-07T14:49:57.856Z</time>
      </trkpt>
      <trkpt lat="47.547122" lon="7.864183">
        <ele>333.252420</ele>
        <time>2021-11-07T14:50:05.294Z</time>
      </trkpt>
    </trkseg>
  </trk>
</gpx>